GFSFLT2_850_spd_027.txt.gz
Wind_Speed
18 16 14 13 12 12 13 15 15 16 16 16 15 15 14 14 13 13 13 13 12 12 13 14 15 16 18 19 19 18 16 14
16 15 14 13 13 13 14 15 16 14 15 14 13 12 12 11 11 11 10 9 8 8 11 13 14 14 14 15 16 17 17 17
15 13 14 14 14 15 15 15 14 12 12 11 10 9 8 8 8 7 6 5 5 7 9 10 13 15 17 19 19 18 16 16
15 14 14 13 14 14 15 14 13 10 9 8 7 6 5 4 5 4 3 4 4 6 9 12 14 18 21 23 25 24 22 18
15 14 14 13 13 13 14 13 10 7 6 5 4 4 3 2 1 1 1 2 4 6 8 10 15 20 25 28 30 28 24 21
15 15 14 13 13 11 10 8 6 4 3 2 3 3 3 3 3 2 4 5 6 8 9 13 18 23 27 30 32 26 24 22
16 14 14 12 10 8 6 5 4 5 5 4 3 4 3 3 4 6 7 7 9 12 15 20 24 26 28 29 28 28 27 25
15 15 13 11 9 7 7 6 10 10 8 7 5 5 5 6 7 7 8 11 13 17 20 24 27 28 29 29 28 28 27 26
16 16 13 11 8 3 3 11 16 15 13 11 8 7 8 7 7 8 11 12 17 21 22 24 26 30 30 30 30 29 28 26
19 16 13 10 9 6 14 20 18 12 14 11 9 7 7 7 9 11 16 20 22 21 25 28 31 33 31 28 27 26 25 24
19 19 18 12 8 14 26 16 11 9 8 5 5 8 8 13 15 16 19 20 20 23 27 31 30 29 27 24 21 22 23 22
21 22 19 5 13 17 6 8 6 3 3 12 10 9 13 13 15 16 16 20 24 28 29 26 26 27 26 21 22 19 16 14
16 17 17 11 5 5 4 7 2 7 4 6 6 10 11 13 12 15 20 25 27 26 26 27 25 25 20 18 16 10 10 19
12 9 7 7 6 6 4 5 4 4 6 7 9 10 11 13 16 21 24 21 22 24 24 26 25 24 21 15 10 13 10 12
13 12 11 9 7 7 8 4 5 7 9 11 11 12 15 19 23 24 20 21 24 26 26 23 22 19 19 10 9 8 21 13
18 15 13 11 10 7 5 7 9 11 12 11 11 14 18 18 20 21 21 22 26 26 27 23 20 14 13 9 12 15 17 19
15 13 13 9 6 6 8 10 11 10 9 9 13 17 18 18 20 22 23 23 23 23 24 24 17 14 10 11 12 13 14 17
15 12 10 8 7 8 9 9 8 8 10 12 14 16 18 20 20 22 23 23 24 24 28 17 15 13 11 11 13 15 17 17
13 11 8 6 5 7 8 8 8 10 13 15 16 19 20 21 23 22 22 22 24 26 25 16 13 13 14 14 15 14 16 16
13 9 5 4 5 5 6 8 10 11 13 16 17 19 21 22 22 22 22 24 23 24 21 15 15 15 16 17 17 15 19 20

GFSFLT2_850_spd_030.txt.gz
Wind_Speed
18 17 16 13 12 12 13 13 13 13 13 14 13 12 11 11 11 11 10 11 10 10 11 11 12 14 16 18 20 19 15 13
16 15 14 12 13 13 14 14 13 13 13 12 11 10 9 9 8 7 6 6 6 6 7 9 11 13 15 18 20 20 15 13
17 14 13 13 12 14 14 14 13 12 11 10 8 5 5 4 5 5 3 1 3 4 6 8 9 13 15 20 18 16 15 13
13 12 13 14 12 14 13 13 9 8 7 8 4 5 4 4 4 3 1 1 3 6 7 8 10 11 14 18 16 22 15 14
13 14 15 14 11 10 9 7 7 6 6 5 5 4 4 3 3 2 2 3 2 6 8 11 17 19 21 22 21 18 15 16
15 14 14 14 11 10 10 7 6 4 5 5 5 3 6 6 3 4 3 4 7 8 9 15 19 22 23 23 22 19 17 17
14 14 14 13 13 12 11 8 4 6 6 5 5 6 8 8 8 6 5 7 8 9 11 15 18 17 19 23 21 19 19 17
15 15 15 14 12 10 7 4 7 11 12 7 7 11 10 9 7 7 7 8 11 11 17 18 15 17 19 20 21 19 17 19
16 16 14 13 11 8 4 7 14 16 12 12 13 12 9 7 7 7 10 12 14 17 17 13 17 19 21 20 21 20 18 16
19 17 14 13 13 6 9 14 17 15 9 11 9 7 7 9 11 11 12 14 14 12 13 17 20 20 20 22 21 19 18 15
19 20 20 15 11 3 15 20 19 6 3 3 4 7 11 9 11 11 12 11 12 17 18 18 20 20 21 21 19 19 18 16
18 20 21 19 16 13 12 9 4 5 7 5 9 9 8 10 11 13 14 11 14 23 23 17 18 19 21 21 19 20 17 14
17 15 18 14 11 6 7 5 8 6 6 6 8 9 9 9 8 12 17 19 23 21 17 17 19 18 21 22 22 18 12 14
15 14 12 7 10 10 9 9 8 8 7 8 9 8 8 10 14 15 19 11 11 16 16 17 16 18 19 22 20 19 20 12
15 13 14 15 13 12 11 9 6 6 8 8 10 11 11 13 15 13 12 15 14 13 15 15 19 18 15 16 19 18 21 22
16 16 16 14 13 8 7 6 5 6 6 7 6 10 13 12 16 20 22 18 15 15 15 17 18 18 16 15 16 17 21 25
17 16 13 14 12 9 6 5 5 4 3 4 6 8 13 15 18 22 22 16 16 14 14 20 18 17 16 16 16 16 17 20
19 17 15 14 12 9 6 5 2 1 3 6 9 12 14 15 16 20 19 18 16 15 18 20 17 16 14 13 15 17 19 19
14 13 12 11 8 5 3 1 2 2 5 8 12 14 16 18 19 19 19 20 18 17 19 19 15 17 14 15 15 16 17 18
13 12 11 8 6 3 5 6 3 5 7 10 12 14 17 17 17 17 18 18 19 20 20 20 17 17 14 15 16 16 18 19

GFSFLT2_850_spd_033.txt.gz
Wind_Speed
23 20 17 16 15 14 13 13 12 13 12 12 11 10 9 8 8 8 8 8 8 7 8 9 10 12 15 20 19 20 16 12
20 18 15 15 15 14 13 13 13 13 12 11 9 7 6 6 4 4 3 3 4 3 5 7 10 15 16 19 16 17 16 12
18 15 12 11 11 13 13 13 12 12 11 10 10 4 5 3 2 1 3 4 5 5 8 9 12 15 20 20 17 16 15 15
15 14 13 13 11 14 11 12 9 8 6 5 4 3 5 2 3 4 5 6 8 9 10 12 11 11 13 15 14 18 15 15
14 15 14 13 12 12 10 10 7 5 5 6 6 1 3 5 5 6 6 8 5 7 9 8 13 14 14 15 17 17 15 15
14 13 15 12 12 11 11 9 7 5 3 1 3 3 3 3 3 4 5 6 7 7 8 11 12 14 15 17 18 18 18 18
14 14 14 15 14 12 10 7 5 2 0 3 3 5 7 4 6 4 5 6 7 8 9 11 14 15 18 19 20 21 20 17
16 15 15 14 13 13 10 6 4 0 7 10 10 11 13 6 6 4 5 8 9 13 17 17 15 17 19 21 21 21 20 20
17 17 16 15 14 14 12 6 4 9 13 11 12 11 11 10 9 12 15 14 12 10 12 13 16 18 20 20 21 21 18 18
17 16 17 19 15 15 6 5 13 13 15 9 9 11 11 12 14 14 12 11 13 11 12 14 16 20 22 21 22 21 19 19
17 18 21 17 15 17 14 21 17 15 7 5 4 6 8 10 11 10 9 7 9 10 13 16 19 22 21 21 23 20 20 20
17 18 19 17 15 17 17 19 14 9 7 5 5 8 9 4 4 8 9 8 9 12 17 17 18 21 22 22 21 21 22 18
18 20 17 14 14 10 13 9 11 8 5 7 5 6 5 4 3 6 9 10 11 13 15 18 18 19 22 24 22 22 19 17
20 17 15 11 7 8 8 9 7 4 6 6 6 5 4 4 8 6 9 10 13 15 16 17 18 18 22 22 25 24 17 12
20 15 11 11 12 12 11 10 7 6 5 3 5 6 4 7 8 9 10 13 15 16 16 16 20 19 18 20 24 22 24 22
15 14 15 15 14 11 10 7 6 7 6 7 5 7 6 6 9 11 13 14 15 16 16 17 19 23 21 19 19 22 24 29
16 17 17 16 13 11 9 7 5 3 3 5 5 7 8 10 12 13 15 17 18 19 19 19 20 22 22 20 20 19 20 22
17 18 16 14 11 10 9 9 6 4 5 6 7 9 11 12 14 16 18 20 20 19 19 20 21 23 20 18 16 18 19 21
18 17 15 13 12 10 9 7 6 5 6 7 8 9 11 13 15 17 17 18 19 20 24 25 23 24 18 17 17 18 18 18
17 16 14 13 12 10 8 6 5 4 6 7 7 9 11 13 14 15 17 18 19 21 22 22 23 22 19 16 19 18 18 18

GFSFLT2_850_spd_036.txt.gz
Wind_Speed
23 22 20 18 15 13 12 12 12 13 13 13 13 12 11 10 10 10 9 9 9 9 10 11 13 16 17 18 15 18 14 17
22 21 20 19 17 14 13 12 13 13 14 14 12 11 7 5 6 6 7 7 6 7 9 10 14 16 18 17 13 18 13 14
20 17 17 17 15 14 13 13 14 14 15 16 13 11 7 7 5 4 5 6 7 9 10 10 9 13 15 16 15 19 12 12
17 16 13 14 16 16 14 15 13 12 13 11 8 5 2 6 7 6 6 8 8 12 13 9 9 12 14 21 20 20 11 10
21 19 16 12 16 15 18 15 12 6 11 8 7 2 2 2 8 7 8 9 7 9 10 13 12 14 15 18 20 21 20 15
20 19 21 18 18 15 13 17 17 11 9 8 4 2 5 6 3 3 4 2 6 5 7 11 13 15 17 18 18 19 19 22
16 25 20 19 17 18 18 12 10 9 7 7 12 10 10 8 7 4 7 7 6 10 11 15 12 11 13 17 21 20 20 16
18 22 24 22 23 20 17 14 13 10 6 6 8 11 6 5 6 6 7 8 11 14 15 12 15 18 20 22 20 22 19 16
20 20 23 22 24 23 20 12 8 5 4 3 9 13 14 11 7 10 12 17 15 15 16 16 20 21 22 19 18 20 18 16
24 24 23 23 24 20 16 8 6 5 9 9 7 8 7 7 7 10 13 13 13 15 15 17 17 19 19 18 21 25 17 20
20 22 24 20 17 18 18 19 10 16 19 14 5 5 5 6 9 11 8 4 9 13 15 20 24 24 22 18 22 21 18 20
21 24 22 19 15 18 14 12 19 14 11 5 6 4 5 4 7 9 9 6 11 16 20 21 21 18 20 20 20 19 15 18
20 25 20 19 16 17 15 13 11 7 6 5 3 4 3 6 4 6 10 6 9 12 17 17 17 16 22 27 21 16 16 14
19 21 16 17 9 9 8 8 7 5 5 5 8 5 3 3 9 8 9 14 14 12 16 19 20 15 22 22 22 26 17 18
21 20 15 14 13 11 12 9 11 13 10 6 8 5 5 8 9 12 13 12 12 16 18 18 17 21 16 21 25 19 28 23
22 21 14 17 18 15 14 14 9 8 4 8 10 9 9 8 8 12 15 17 18 16 16 20 26 21 21 18 19 22 23 26
20 15 18 20 18 13 13 10 11 16 15 12 5 7 10 8 9 11 13 15 16 20 22 22 21 19 22 24 29 27 22 20
20 19 20 18 20 15 16 15 10 8 6 5 3 7 8 11 13 15 18 20 22 20 20 23 25 28 28 25 23 20 20 19
24 21 19 17 16 15 16 17 15 15 9 6 9 11 11 15 17 21 21 18 19 20 22 24 26 26 25 27 22 23 17 19
21 23 20 19 17 15 14 15 12 10 11 11 16 13 15 17 17 14 17 17 20 21 22 22 23 23 26 24 22 17 20 19

GFSFLT2_850_spd_039.txt.gz
Wind_Speed
26 29 18 18 18 17 17 17 17 17 17 17 17 17 17 15 14 13 11 11 11 11 11 11 13 14 15 16 16 12 13 17
26 22 19 20 18 15 17 17 18 19 19 18 17 15 13 11 9 8 8 8 8 8 8 7 9 11 14 16 18 10 8 12
24 17 17 17 19 18 18 19 20 20 19 16 13 13 12 10 6 5 6 7 9 10 7 6 8 14 17 19 18 17 10 11
22 17 17 18 18 18 19 20 21 20 17 14 9 8 5 5 6 6 9 9 7 9 4 6 11 15 18 19 19 20 21 16
21 19 16 17 20 22 22 22 21 16 14 15 8 5 3 3 6 7 7 7 6 2 2 7 10 10 11 13 14 16 21 17
26 19 18 20 21 22 21 18 18 13 11 10 10 9 9 7 8 7 6 7 5 6 7 8 11 13 9 13 16 20 19 17
28 24 21 19 23 21 18 18 14 12 13 15 13 12 12 11 7 6 8 9 9 7 10 13 14 14 17 18 20 18 18 17
27 26 21 23 18 22 24 22 15 13 15 13 12 11 10 9 10 13 12 11 8 12 13 14 13 16 20 20 14 15 18 20
30 26 28 23 25 23 19 14 17 15 8 5 8 12 13 12 10 9 10 10 13 13 14 15 17 20 18 12 11 17 20 14
28 32 28 25 25 24 20 20 16 11 6 3 7 12 12 9 9 8 7 11 13 16 16 16 19 18 20 17 18 19 19 13
28 33 28 25 23 22 22 21 14 9 10 6 7 11 9 7 5 6 7 12 13 14 16 20 22 23 24 24 23 18 14 15
28 28 23 20 20 25 25 19 12 10 10 7 8 8 6 5 6 6 9 10 11 13 18 22 24 26 25 23 24 21 6 12
28 27 25 27 26 29 23 15 13 11 8 10 9 7 6 6 8 8 8 7 11 14 17 20 24 24 26 28 31 11 22 9
30 28 23 26 22 19 16 15 12 10 11 11 9 7 8 8 9 11 13 14 16 18 18 20 20 21 23 28 17 27 8 19
29 22 19 22 20 14 15 12 14 15 12 9 10 10 8 7 10 13 14 15 17 18 18 18 18 21 25 21 15 8 30 21
22 18 19 16 21 22 17 16 16 11 6 10 11 9 6 8 10 12 13 14 16 16 15 19 22 24 23 21 21 24 28 29
21 19 14 23 21 23 17 13 13 14 16 14 10 6 3 2 6 10 12 15 17 20 22 23 18 19 23 23 26 27 26 27
21 20 20 23 24 23 16 18 23 19 21 17 11 8 10 10 12 14 16 19 21 25 23 21 22 23 24 28 28 27 26 23
28 25 25 22 28 22 23 22 21 21 18 18 16 15 14 16 20 21 23 26 25 21 21 21 21 21 20 24 24 25 23 20
24 25 25 30 30 27 25 23 22 22 21 20 19 19 21 18 24 24 24 22 22 22 22 21 20 20 19 21 25 26 20 22

GFSFLT2_850_spd_042.txt.gz
Wind_Speed
30 29 25 20 16 18 20 21 21 22 23 23 23 22 21 18 17 16 14 13 11 10 10 10 12 15 13 15 11 9 11 12
37 36 32 22 19 18 19 21 21 22 22 23 22 20 17 15 14 13 11 10 9 8 9 9 10 12 14 15 12 11 11 13
33 25 21 22 21 21 20 21 22 23 22 21 19 17 14 12 11 10 10 10 8 6 4 5 9 11 17 18 18 18 18 17
28 20 22 22 21 22 23 24 23 21 19 18 17 15 12 11 11 11 10 8 5 1 3 4 7 10 16 15 18 16 17 17
23 21 23 21 22 23 24 24 22 19 15 14 13 12 12 11 12 11 6 7 3 3 1 5 7 10 13 15 16 15 17 14
24 22 22 21 22 24 24 24 20 16 16 13 11 11 10 11 12 10 8 6 5 4 4 6 8 11 12 13 16 18 14 13
24 23 24 24 23 24 24 21 18 18 16 14 11 9 8 10 10 9 10 9 8 6 7 9 11 12 13 15 15 12 13 14
27 24 24 25 26 23 22 20 20 16 15 13 11 11 11 9 9 10 10 9 9 10 13 11 12 13 16 15 13 13 15 15
29 25 24 26 24 21 20 21 18 16 13 12 11 11 11 12 12 12 12 11 12 14 11 12 13 16 15 14 12 13 16 14
28 27 25 27 23 24 23 21 19 15 11 8 6 12 14 16 14 13 12 12 12 10 12 14 16 16 17 18 16 14 9 9
35 32 30 28 26 28 26 21 17 15 10 7 6 12 15 13 11 11 11 9 9 12 14 16 17 19 20 19 17 18 6 6
36 36 33 28 27 25 23 22 20 15 11 8 6 12 12 11 10 10 8 9 10 12 14 18 19 21 20 19 21 2 11 10
37 36 33 28 28 27 27 26 23 16 12 10 9 12 11 12 11 8 9 9 10 14 17 18 19 19 20 22 20 4 10 2
31 33 30 28 26 26 25 24 22 16 13 12 13 13 13 13 10 10 10 11 14 16 16 17 17 19 20 23 8 18 9 26
28 27 29 28 28 26 26 23 21 20 18 17 18 16 14 11 9 10 12 14 15 15 16 17 18 20 21 16 9 7 25 16
29 29 29 26 29 29 26 25 25 23 22 19 18 16 13 11 12 13 14 15 16 17 18 19 21 22 18 17 18 19 22 21
31 29 26 19 22 28 25 19 20 19 20 19 18 16 16 16 15 13 13 16 18 17 18 21 23 22 21 19 21 22 24 24
30 29 24 22 24 31 28 23 21 22 23 23 19 18 17 16 14 13 15 17 18 19 22 22 21 22 22 22 20 21 23 25
27 27 23 23 28 29 29 26 24 24 24 27 22 21 19 15 13 14 18 20 20 23 22 22 21 21 22 22 20 19 22 26
28 28 25 24 29 29 30 28 25 24 23 25 24 21 18 17 15 18 18 19 19 21 23 21 19 20 21 21 21 23 24 26

GFSFLT2_850_spd_048.txt.gz
Wind_Speed
31 38 33 29 25 24 23 22 22 25 27 28 28 27 26 24 22 20 18 15 13 12 13 13 13 13 11 10 11 10 11 12
30 39 29 25 23 23 22 22 22 25 26 26 25 25 23 20 18 16 14 12 11 9 9 12 11 11 12 12 12 12 13 12
36 41 33 21 21 18 20 19 21 23 25 24 23 21 19 17 14 12 11 9 7 6 7 9 12 13 14 14 15 15 14 12
38 42 43 32 27 19 16 17 22 23 24 22 21 19 17 15 12 10 7 6 5 3 4 7 11 13 15 14 15 14 12 9
42 40 44 37 20 19 21 20 23 24 22 20 20 18 16 13 10 7 5 4 1 1 2 6 11 14 14 15 17 15 12 11
36 39 38 27 21 19 23 23 23 23 22 19 18 15 14 11 9 8 5 3 2 2 3 7 11 12 12 14 16 14 14 14
40 37 30 24 25 24 24 25 23 22 21 19 15 13 12 10 9 8 8 7 5 4 6 7 10 10 11 13 14 14 13 13
30 25 21 20 22 25 25 25 24 22 20 17 14 13 10 9 10 11 9 8 9 7 6 8 9 11 14 15 14 13 11 10
26 22 23 24 25 25 26 26 24 21 18 16 13 12 11 11 12 14 13 12 10 9 8 10 10 13 14 14 11 12 11 9
26 26 24 23 24 26 27 27 23 19 16 13 12 11 10 11 14 15 13 11 11 10 10 10 12 14 13 11 12 12 7 9
25 24 23 23 24 27 27 26 22 18 16 14 11 11 13 16 14 15 14 14 11 11 10 11 13 12 10 11 14 10 3 11
25 21 21 24 25 26 26 26 24 20 18 15 14 15 17 17 17 16 15 14 10 9 11 13 11 9 11 14 16 8 7 12
27 26 23 25 29 30 30 28 25 25 19 18 18 15 16 18 17 16 16 12 10 12 12 9 8 11 14 19 13 10 9 12
29 27 26 27 28 29 29 27 26 24 21 21 19 16 16 16 16 16 14 13 11 10 8 8 10 12 14 16 11 13 10 12
32 31 30 30 30 30 31 29 31 28 24 25 22 18 17 16 17 16 15 12 10 9 9 11 11 14 17 15 7 5 16 13
31 29 30 31 32 33 34 32 34 29 23 23 19 19 18 19 20 17 14 11 11 9 10 12 14 17 18 18 16 16 10 10
31 31 34 34 35 35 35 33 33 27 23 20 20 22 22 21 19 16 14 13 12 12 10 13 20 19 19 18 18 16 16 19
36 35 35 35 37 37 36 33 32 29 25 22 22 23 23 22 20 19 18 18 18 18 16 26 16 17 19 18 14 14 15 16
39 38 38 37 36 38 38 37 33 27 24 21 22 24 25 24 22 22 24 23 24 22 22 18 22 24 18 15 15 18 19 19
38 38 39 37 38 35 39 41 35 29 26 22 20 23 27 27 26 30 29 25 28 22 25 18 15 17 15 16 18 19 17 15

GFSFLT2_850_spd_051.txt.gz
Wind_Speed
29 35 32 27 29 27 27 30 31 34 34 33 31 28 27 25 23 21 19 18 16 14 14 14 14 12 11 12 12 12 11 11
37 37 38 40 26 24 23 28 32 33 32 31 29 26 24 22 19 17 15 13 12 13 13 11 12 12 12 13 13 13 13 12
36 42 44 37 27 24 22 25 31 32 30 29 27 25 23 20 16 15 12 11 9 9 9 10 12 13 13 13 13 13 11 10
49 44 42 39 33 25 24 25 27 29 29 27 24 22 20 17 15 12 9 8 7 5 6 7 10 12 13 13 15 13 10 10
38 44 47 45 38 33 30 23 26 28 27 26 24 21 18 16 12 10 9 8 5 2 2 6 9 12 13 15 15 15 13 11
32 39 43 41 38 25 24 22 25 28 27 24 22 19 17 14 12 12 9 6 3 2 2 6 9 12 13 14 15 14 12 11
34 39 40 36 38 23 22 21 25 25 24 23 20 17 15 14 13 9 9 7 5 3 4 6 9 12 13 14 13 12 12 11
36 40 44 34 21 22 23 24 26 25 23 19 17 15 15 13 12 12 10 9 7 4 6 7 11 12 12 13 13 11 11 8
37 30 27 22 19 19 21 23 25 24 21 19 18 17 16 14 14 14 13 10 8 8 8 9 9 10 12 12 11 11 8 4
32 26 22 22 23 21 22 25 24 22 21 22 18 17 17 15 16 14 12 13 11 11 11 9 8 10 11 11 11 10 5 5
30 26 22 21 22 22 23 24 24 22 19 17 18 17 16 14 14 11 13 13 15 13 10 8 8 10 10 11 13 8 4 3
26 24 22 21 22 23 24 25 25 23 21 20 17 16 15 12 14 15 16 17 16 14 11 9 9 9 11 12 11 6 6 6
28 26 24 25 27 27 28 29 28 27 23 21 18 16 15 15 17 18 19 19 16 15 11 9 8 9 10 13 9 7 9 10
30 27 26 25 26 26 28 28 27 26 25 25 23 18 18 18 19 20 21 20 17 14 11 10 7 6 6 10 6 10 9 11
31 30 28 26 26 26 28 28 28 31 28 26 21 20 20 18 19 20 20 18 17 14 13 10 7 7 10 11 6 7 12 13
32 31 30 29 29 28 29 31 32 31 28 24 20 21 21 20 21 21 20 19 17 17 15 12 9 11 14 14 13 14 10 12
30 31 31 31 31 31 31 32 33 31 28 22 21 22 23 24 24 23 21 20 21 18 17 14 17 15 16 15 16 16 16 16
31 31 32 32 31 31 32 31 32 32 31 27 24 25 26 25 25 24 23 23 22 22 20 18 15 19 22 19 15 12 10 12
34 33 32 32 31 30 30 30 35 35 36 28 26 27 27 26 27 27 27 24 23 27 21 15 20 19 16 15 14 14 15 17
34 34 34 32 32 31 30 27 34 35 37 29 25 27 23 25 29 28 24 22 24 22 16 19 15 12 11 13 15 16 16 15

GFSFLT2_850_spd_054.txt.gz
Wind_Speed
38 36 31 32 26 30 30 31 33 33 33 32 31 30 29 27 24 23 21 19 17 15 15 14 13 13 12 13 13 12 11 11
37 35 33 30 29 27 28 29 33 34 33 32 30 29 27 26 23 20 18 16 15 15 13 13 12 12 12 13 12 14 9 10
35 38 42 39 40 27 28 30 30 30 31 30 28 27 24 21 19 17 15 14 13 11 11 12 12 12 12 12 12 8 9 8
35 40 40 39 35 34 26 28 30 30 29 28 24 23 19 18 17 15 13 11 10 9 9 9 11 10 11 11 11 10 8 7
37 41 42 39 39 40 34 30 30 29 27 26 24 22 20 19 17 15 13 10 9 7 6 5 7 9 11 11 12 9 7 7
38 40 45 42 37 42 41 29 29 29 29 29 25 21 19 16 15 14 13 11 7 5 1 2 7 10 11 13 13 9 8 5
38 33 35 37 36 36 34 28 24 27 30 26 23 18 18 16 15 13 13 11 6 4 2 3 7 9 10 12 11 10 10 4
31 35 35 32 33 34 33 24 29 26 26 24 21 19 17 16 13 14 12 9 7 6 4 3 4 7 9 10 9 10 8 4
34 33 35 39 28 22 19 19 20 23 21 22 20 18 17 16 14 12 11 10 10 8 6 5 4 6 8 9 9 10 7 4
28 29 27 23 15 17 17 17 23 20 23 21 17 19 18 18 16 15 14 12 13 11 7 6 5 3 5 5 7 7 5 6
28 29 24 18 15 18 19 20 22 22 24 24 22 20 20 19 19 17 15 16 14 13 12 7 6 3 2 3 9 5 5 4
26 24 22 21 18 20 19 19 21 24 25 22 20 22 21 20 20 19 17 17 18 17 15 12 6 4 3 5 7 6 6 6
27 25 23 20 19 19 20 21 21 24 27 25 22 23 23 21 20 18 20 19 21 18 16 12 8 6 4 6 10 9 8 8
27 26 23 22 19 19 19 19 21 25 29 27 27 27 24 21 20 18 19 22 22 20 16 11 8 9 4 6 7 8 7 11
29 26 24 23 21 19 19 17 19 27 30 30 31 27 25 22 21 21 23 23 23 21 18 14 9 9 9 5 6 11 15 12
30 28 26 24 24 22 22 21 21 24 30 31 27 25 23 24 23 25 25 24 24 22 21 16 13 8 8 12 16 11 10 11
29 28 27 26 25 25 23 23 21 20 26 26 25 24 25 26 26 26 26 26 25 24 23 21 22 15 14 12 8 12 12 13
29 29 29 28 28 29 29 27 26 23 26 26 26 25 25 27 28 26 25 25 26 26 25 25 24 18 13 15 12 12 11 14
30 31 30 29 29 29 29 30 30 29 25 27 28 29 28 28 27 26 28 28 30 25 26 26 22 16 16 11 11 11 10 12
31 31 30 29 29 29 29 27 28 29 29 27 30 31 29 24 26 27 30 29 26 29 25 22 19 17 10 12 9 10 11 13

GFSFLT2_850_spd_057.txt.gz
Wind_Speed
35 34 31 28 24 23 27 29 32 33 34 33 31 30 27 25 24 23 21 18 16 15 13 13 13 14 15 16 17 19 12 11
38 35 26 25 25 24 23 22 28 33 34 33 30 28 26 25 23 21 19 17 15 14 13 12 13 13 15 15 17 16 9 8
29 31 31 24 27 29 30 25 26 31 32 30 29 27 25 22 21 19 17 15 13 12 11 11 11 13 13 12 13 8 8 6
34 30 28 34 36 35 31 29 28 30 30 28 27 24 17 19 19 16 15 13 11 10 9 11 13 8 10 11 7 8 7 5
34 38 39 39 38 36 33 30 31 31 30 23 23 22 18 18 19 16 14 12 10 7 7 6 5 4 6 7 7 7 6 3
33 35 37 39 38 35 36 34 33 30 25 21 24 23 20 19 17 15 13 9 8 6 5 2 2 4 7 9 7 5 4 3
38 37 37 37 40 40 43 31 32 30 24 23 21 15 16 13 13 12 12 11 9 7 3 2 0 3 5 7 6 7 7 4
32 35 32 35 42 40 37 28 29 22 17 22 20 12 17 16 17 12 12 11 10 7 7 4 3 1 3 5 3 5 4 5
27 29 28 33 35 41 34 27 20 21 21 18 19 15 17 14 13 13 13 12 10 11 9 6 3 3 1 3 3 4 2 1
23 30 29 32 34 34 19 16 17 17 15 15 18 17 15 17 14 14 14 14 12 10 9 6 6 4 4 2 1 1 2 2
29 27 26 29 28 19 15 14 18 17 16 18 21 20 20 17 15 13 16 13 17 15 11 10 8 7 5 4 4 3 4 4
29 28 33 18 16 16 15 16 16 17 17 18 22 19 18 19 15 15 20 18 17 17 16 14 9 8 6 8 7 6 5 7
29 30 28 22 19 20 20 17 16 17 18 21 24 22 21 21 19 19 24 17 18 18 19 17 10 9 7 9 10 13 11 7
29 27 24 22 19 18 18 17 17 19 20 19 22 25 19 19 20 20 22 19 21 22 21 18 12 11 8 9 7 8 11 11
29 26 25 23 20 19 18 18 19 20 21 21 28 29 26 22 24 24 23 20 21 23 24 21 14 12 11 8 6 6 13 10
29 26 25 23 22 20 20 20 20 20 20 22 28 30 26 25 30 28 22 20 27 23 23 20 17 15 12 11 13 13 9 10
30 27 26 24 23 23 21 23 20 18 18 21 26 27 28 28 27 29 26 32 27 25 23 22 16 17 23 18 14 12 11 15
31 30 29 27 27 26 27 24 23 20 19 25 24 25 24 23 23 28 32 30 27 25 22 21 25 22 21 19 15 9 13 15
32 30 30 30 31 30 29 27 25 23 23 25 19 19 22 23 24 23 29 28 26 21 25 25 24 24 21 19 14 14 14 15
31 30 29 28 29 30 25 25 28 29 26 23 23 23 24 28 25 23 23 26 27 29 23 27 29 23 21 17 16 10 13 15

GFSFLT2_850_spd_063.txt.gz
Wind_Speed
22 26 21 27 29 32 30 30 28 26 31 33 32 31 29 28 26 24 23 22 20 20 21 21 24 24 24 21 10 5 7 12
12 17 22 8 12 27 26 25 28 27 30 34 31 30 28 27 26 23 22 21 20 19 20 20 22 23 23 19 10 5 7 9
14 21 22 18 8 27 23 20 25 26 28 30 31 30 27 27 24 22 21 18 19 19 20 19 18 17 18 17 8 6 3 6
19 23 20 26 25 35 31 37 26 24 27 28 28 27 26 26 23 20 18 17 16 17 15 15 13 13 14 17 8 3 2 7
19 17 22 21 32 32 36 39 40 30 28 29 27 26 25 23 21 17 16 14 14 13 11 10 10 8 11 13 8 3 3 5
24 25 24 27 33 29 33 40 34 31 30 29 29 25 23 18 18 15 13 12 9 9 8 7 6 7 9 9 6 2 3 5
31 29 32 33 36 38 42 41 35 35 33 28 23 21 19 18 16 13 11 10 8 6 4 5 5 6 7 8 9 3 1 2
27 32 32 35 42 43 46 45 36 35 33 27 24 17 17 15 12 11 11 10 6 5 4 4 4 3 3 3 5 6 3 2
30 23 36 40 44 43 46 40 38 35 34 29 20 16 14 14 14 13 10 9 11 8 6 3 2 4 2 3 4 5 7 4
29 40 41 39 34 46 43 43 42 38 37 26 20 17 16 14 12 12 12 16 14 12 10 9 7 6 5 6 6 5 4 4
29 31 34 34 38 41 36 38 40 35 28 24 19 20 16 15 18 19 19 19 17 15 14 13 11 10 12 12 12 11 6 6
29 30 32 34 33 30 34 33 42 37 23 24 16 15 18 19 18 18 20 20 20 18 17 14 15 17 17 16 14 15 12 10
29 30 30 32 37 30 34 36 37 34 23 22 19 20 21 23 23 21 21 22 21 19 17 19 22 21 19 18 18 16 16 15
28 29 33 36 33 35 35 30 31 35 26 23 26 24 22 23 22 22 22 25 24 22 21 22 23 24 25 23 19 22 23 25
33 35 40 42 34 29 26 23 25 27 30 30 28 28 27 25 25 23 25 26 29 24 23 22 22 22 28 24 12 13 17 22
38 44 46 37 28 27 27 27 28 29 30 28 29 31 29 26 28 28 26 28 27 25 27 26 24 24 25 28 24 7 7 9
40 43 40 32 30 30 28 27 26 24 25 26 27 29 31 30 31 29 31 32 28 29 29 28 31 26 27 32 31 26 21 17
38 44 38 32 32 32 33 36 32 31 31 30 29 28 26 28 29 31 34 36 32 29 28 30 30 31 27 25 24 28 24 20
40 40 42 38 35 33 36 36 34 33 34 30 31 32 31 28 28 30 29 34 33 29 27 28 31 30 24 26 24 28 28 23
43 43 41 41 41 37 36 37 38 35 36 34 32 33 32 30 30 28 21 21 19 20 26 29 31 22 16 22 24 27 24 23

GFSFLT2_850_spd_066.txt.gz
Wind_Speed
15 23 14 26 49 42 38 38 41 38 34 33 34 34 33 32 29 28 27 25 24 25 27 23 18 12 11 11 12 12 15 16
22 19 21 23 19 15 27 32 40 39 36 34 33 34 32 30 28 28 26 25 24 24 25 24 19 13 10 9 9 11 12 13
19 16 12 3 9 17 17 22 35 38 36 33 33 33 32 29 28 27 25 24 24 24 23 22 19 12 9 8 7 9 10 11
11 10 13 17 17 21 35 37 28 33 34 34 32 32 32 30 27 26 25 23 21 20 19 19 18 11 8 7 5 6 7 9
10 15 16 19 22 33 38 42 35 32 32 32 32 32 31 30 27 24 23 20 18 15 14 14 13 11 10 6 4 5 6 9
13 17 19 28 36 39 36 39 41 41 38 33 30 32 30 28 25 22 19 17 15 13 11 10 9 10 9 7 4 4 5 7
18 20 22 28 40 39 42 39 39 39 39 37 32 31 27 23 22 20 17 16 14 11 10 7 6 8 7 6 4 3 3 5
25 25 30 33 37 38 41 37 37 36 36 36 33 29 25 24 20 17 16 14 12 8 8 6 7 7 7 6 4 3 2 1
35 29 30 33 39 42 43 40 39 38 36 33 32 26 23 20 17 17 15 12 10 8 7 8 7 5 6 5 5 4 4 4
26 29 31 33 38 46 43 42 40 38 37 31 27 22 18 18 16 14 13 12 9 6 9 8 6 5 5 5 4 5 7 7
28 30 31 38 40 44 37 37 40 40 35 29 28 23 18 17 15 15 13 11 10 11 12 11 8 9 8 8 8 8 8 8
27 34 31 35 38 44 36 36 39 39 35 33 34 21 19 18 16 14 14 15 16 17 16 14 13 14 13 13 14 13 12 12
24 34 31 37 37 41 42 42 38 35 38 41 23 18 20 19 19 17 18 21 19 18 19 19 19 19 17 20 21 20 21 18
31 33 31 35 35 41 43 43 37 41 39 32 24 23 23 22 21 21 21 23 22 22 23 22 21 22 23 23 20 23 26 24
35 35 36 39 42 38 36 40 35 44 45 34 27 27 24 21 21 21 24 27 25 23 24 23 23 23 27 23 11 15 18 27
36 37 38 39 39 37 39 41 42 48 46 36 30 30 28 26 24 24 27 26 25 25 24 25 26 26 27 31 32 23 11 8
35 36 37 40 41 39 41 40 40 42 42 37 35 33 30 30 29 28 29 29 31 29 28 29 27 27 31 32 32 33 29 16
37 39 42 45 43 41 39 36 36 37 39 37 34 33 33 34 33 31 30 30 31 32 31 29 28 27 31 36 33 32 33 30
40 43 47 47 43 40 39 37 35 35 34 35 35 35 34 33 32 33 32 28 33 33 34 32 30 29 31 32 30 24 22 24
46 49 50 48 44 42 40 38 38 39 37 36 36 35 31 26 26 29 27 28 35 31 32 32 29 28 29 28 18 20 23 25

GFSFLT2_850_spd_069.txt.gz
Wind_Speed
24 33 26 10 32 29 46 51 40 37 37 37 36 35 35 33 33 32 32 31 27 22 21 22 20 17 16 15 15 16 15 15
26 30 14 21 24 22 21 36 46 43 38 39 38 35 34 33 32 31 32 31 28 22 19 19 18 16 14 14 14 15 16 15
13 18 18 12 8 7 17 33 50 42 40 41 38 36 33 33 31 30 31 31 29 24 17 16 14 13 12 12 12 14 13 14
10 11 12 15 15 16 20 32 29 34 36 38 38 35 34 33 31 30 30 30 28 24 19 15 12 11 11 11 9 11 12 13
3 6 15 18 25 26 29 43 38 31 35 35 36 35 34 33 32 30 29 28 26 24 19 14 12 9 9 8 8 10 11 12
2 10 19 18 24 28 45 44 39 38 35 33 36 34 32 30 29 27 25 23 23 20 18 15 13 10 8 8 8 8 10 11
11 14 17 20 25 37 44 47 44 41 40 34 33 32 31 30 27 26 23 21 18 17 15 12 11 11 9 6 6 6 7 8
15 16 20 26 32 39 40 42 43 41 43 39 34 32 32 29 27 24 22 18 16 13 11 10 10 9 8 6 6 6 6 4
18 20 23 28 34 34 40 40 42 41 41 40 38 35 30 27 24 22 19 16 15 13 10 10 10 9 8 6 5 5 4 2
22 30 29 32 38 39 34 36 37 39 39 37 34 32 26 22 21 19 15 14 13 10 9 10 10 9 8 7 6 4 3 4
19 27 29 37 41 39 37 36 36 36 35 35 33 27 22 20 18 16 15 14 12 10 10 9 10 9 9 10 8 6 5 7
17 24 28 33 37 41 34 33 34 35 35 33 31 31 24 20 18 15 14 13 13 13 10 11 12 9 10 13 12 10 11 11
20 26 30 30 35 39 33 37 36 36 34 32 27 25 21 18 18 16 16 15 13 12 13 14 15 13 15 18 18 18 18 17
19 25 28 32 34 37 38 38 37 34 36 29 25 26 28 20 17 18 15 15 17 17 19 19 18 19 21 20 19 23 26 24
22 25 29 31 34 39 34 34 36 38 39 33 33 33 27 22 21 19 20 22 22 21 22 23 22 23 24 22 10 17 16 24
25 28 32 32 36 36 39 41 39 39 38 41 38 37 27 23 22 21 22 22 23 24 25 26 25 26 26 27 30 28 16 12
27 31 32 33 35 34 37 41 45 43 39 42 41 39 34 29 26 26 26 27 26 27 28 28 27 28 28 29 28 31 35 31
29 33 34 35 35 38 40 41 42 46 46 43 46 46 38 36 32 31 29 31 30 30 30 32 32 31 31 30 29 31 29 36
30 34 36 38 39 41 42 41 41 41 41 45 46 44 41 39 35 35 34 33 32 31 34 35 35 34 32 30 29 31 27 30
34 35 38 40 42 44 43 40 39 37 37 41 44 43 41 36 36 38 36 33 31 30 36 34 33 30 32 30 30 28 22 22

GFSFLT2_850_spd_072.txt.gz
Wind_Speed
29 27 20 20 15 12 21 27 38 35 32 35 39 36 35 33 31 29 28 26 25 25 25 23 23 21 20 20 19 17 17 18
33 32 28 28 27 26 29 23 46 38 39 39 41 38 35 31 30 29 26 25 24 24 24 21 20 19 20 19 18 17 18 19
16 20 24 20 20 19 22 23 41 40 41 42 39 38 33 32 31 31 26 24 24 24 23 21 20 19 18 17 17 16 16 17
18 23 24 21 16 8 6 45 46 45 43 43 41 34 35 33 33 31 27 25 23 23 22 20 18 18 18 16 16 15 15 15
11 12 18 20 20 14 29 30 34 41 41 38 33 39 36 35 34 32 29 25 23 21 18 15 14 13 15 15 16 15 14 14
8 7 16 18 18 23 33 35 43 42 41 39 44 40 37 34 32 31 28 25 21 18 17 12 11 13 12 14 13 14 13 13
8 11 17 16 21 25 28 37 41 40 44 43 42 39 35 33 31 30 26 24 20 19 15 14 14 14 12 10 11 11 10 10
9 13 17 16 20 23 37 40 39 41 39 39 36 35 33 32 29 25 25 22 21 17 14 15 14 12 10 10 9 8 7 6
12 17 17 17 21 30 41 38 42 44 39 39 39 36 30 26 26 27 23 22 21 16 15 14 12 11 10 9 7 6 5 4
12 15 20 23 25 33 38 38 35 40 37 37 35 29 24 32 29 23 21 19 16 13 12 13 12 10 8 8 7 6 5 5
10 15 23 22 27 34 36 36 35 39 42 36 32 32 34 27 23 21 19 17 15 12 13 9 8 8 8 8 8 8 7 8
9 14 22 23 32 34 35 34 35 32 43 36 36 34 29 24 19 20 18 15 15 12 11 10 8 8 8 9 10 10 11 10
12 13 17 26 33 33 31 33 36 38 40 39 37 32 30 24 21 18 17 15 13 12 12 11 10 11 12 13 15 15 17 17
14 13 17 26 35 36 32 30 29 34 34 35 34 32 26 24 23 21 18 15 15 15 15 13 12 13 16 15 16 21 23 23
18 18 20 22 31 35 26 28 31 32 34 38 35 31 34 35 26 22 18 16 16 15 15 17 17 16 18 18 9 13 16 18
20 23 25 25 28 33 35 40 36 37 34 35 33 33 31 31 29 24 19 18 20 19 17 21 20 21 22 26 28 29 19 13
19 21 24 27 32 35 35 38 40 37 38 39 38 33 28 26 25 26 25 22 20 20 21 23 23 25 28 30 29 30 31 32
21 24 27 29 31 35 38 37 41 45 45 44 46 40 36 35 35 30 26 23 27 25 24 26 27 29 32 33 33 28 27 27
25 27 31 32 32 34 38 40 43 43 48 46 45 45 44 42 39 38 35 29 28 29 29 31 32 33 35 37 35 33 32 30
30 32 32 34 34 35 37 37 39 41 47 46 46 43 41 44 43 40 37 33 33 34 35 36 35 36 36 33 30 30 28 26

GFSFLT2_850_spd_075.txt.gz
Wind_Speed
24 23 33 31 34 39 36 30 27 35 31 32 34 36 35 33 31 27 28 27 26 26 24 24 22 22 22 20 20 20 21 21
19 21 23 33 41 40 36 25 18 38 38 39 39 40 36 33 30 29 28 27 27 26 24 23 22 22 21 21 20 20 20 21
17 22 23 27 27 33 33 25 26 31 50 42 43 40 36 33 31 30 28 27 27 26 23 22 22 22 20 20 20 20 20 19
11 9 16 21 22 25 24 25 28 39 41 42 42 41 36 33 32 29 28 28 27 25 23 21 21 22 20 18 18 18 18 18
11 12 17 20 23 23 24 26 34 44 44 40 36 36 35 35 32 30 29 28 27 24 22 20 19 19 18 17 17 19 19 17
12 11 15 22 20 17 15 17 36 42 41 41 39 38 37 32 32 30 30 29 26 22 20 18 17 16 16 17 17 17 17 17
12 11 13 11 13 15 18 20 43 47 42 40 39 39 35 31 30 31 29 27 26 24 22 19 18 16 15 14 15 15 14 14
12 10 12 11 14 24 24 27 40 45 44 40 40 33 34 33 34 30 26 23 22 17 19 20 17 14 14 13 12 11 11 10
17 12 12 13 18 25 28 31 40 46 43 34 34 35 32 33 33 28 24 20 16 17 20 19 17 16 13 12 11 9 8 7
17 12 16 18 17 22 30 30 36 41 40 41 38 36 38 36 30 25 21 19 17 19 21 17 16 14 13 12 11 10 8 7
15 15 19 21 19 21 29 36 41 42 39 41 40 39 38 32 30 28 26 23 21 20 18 14 14 12 11 10 10 10 9 8
14 13 18 21 21 27 31 28 39 40 40 39 39 36 31 31 29 26 24 21 21 20 16 14 12 11 11 10 10 10 10 10
14 14 17 20 25 32 33 34 27 43 36 38 37 35 25 30 29 23 18 19 18 17 17 16 14 13 11 12 12 13 15 15
18 16 17 23 28 33 36 37 32 42 37 38 33 34 31 34 24 22 22 21 22 19 17 15 14 14 15 13 10 15 20 20
20 20 20 24 29 33 32 34 35 35 36 42 38 36 34 31 28 27 24 23 20 19 16 15 16 16 17 14 7 10 8 11
23 22 22 24 29 34 33 34 37 39 38 45 41 39 36 36 32 27 24 27 21 20 16 16 18 21 20 20 20 21 16 12
26 26 25 26 30 35 32 29 30 32 40 41 40 43 40 38 35 30 29 28 26 21 20 18 17 20 22 24 24 25 26 27
22 29 30 30 29 35 37 34 33 38 41 41 44 41 38 39 38 37 33 33 28 24 23 20 20 19 24 28 30 27 25 26
25 28 31 31 31 32 33 36 38 39 41 42 44 47 44 41 38 38 35 30 26 24 24 21 24 24 28 30 30 31 34 33
28 29 31 32 32 34 35 37 40 43 43 44 44 46 44 41 37 34 32 32 33 35 33 30 30 29 29 30 30 29 25 27

GFSFLT2_850_spd_078.txt.gz
Wind_Speed
19 16 20 23 25 19 26 26 29 34 32 22 23 25 28 28 28 29 28 25 24 21 21 22 21 21 21 21 22 25 18 18
17 21 20 25 30 26 27 26 27 36 28 32 29 29 33 33 32 29 29 26 24 23 23 23 23 22 22 21 21 24 17 18
13 24 29 32 37 31 27 27 24 23 31 40 40 35 37 34 31 30 30 30 27 26 24 24 23 22 21 22 19 15 17 15
13 10 17 23 32 35 33 27 26 24 27 41 43 41 40 34 33 32 31 31 27 26 24 24 23 23 22 20 14 15 14 14
10 14 12 13 24 24 30 34 35 31 31 38 44 43 43 36 37 34 33 31 28 25 24 21 19 18 20 14 16 14 13 14
11 12 13 15 18 22 23 25 28 32 27 45 52 48 43 39 40 31 33 30 29 26 21 18 19 17 16 17 15 14 13 13
15 15 15 13 15 21 23 22 20 27 49 52 46 44 41 41 38 33 33 26 26 22 19 19 20 18 16 16 15 14 14 12
15 16 15 12 12 13 15 13 33 42 45 46 43 39 37 38 34 34 34 26 23 20 19 18 18 16 16 16 15 13 13 12
16 14 13 9 10 16 14 23 35 47 47 43 38 32 35 31 32 32 29 27 23 21 19 17 16 14 14 16 14 12 11 12
15 16 13 10 12 18 16 25 36 40 39 40 40 40 36 36 33 30 26 24 25 22 18 18 16 14 13 12 12 11 11 11
16 17 13 10 15 18 16 32 41 45 43 40 39 35 31 30 27 24 24 23 23 21 20 18 14 14 13 12 11 11 11 11
14 16 14 11 14 15 19 31 41 46 43 40 38 33 33 31 32 31 32 29 22 20 18 18 13 13 12 11 11 11 12 12
17 15 17 15 16 19 23 35 44 45 41 40 39 42 39 41 38 34 29 25 20 17 17 15 13 15 11 9 11 14 15 15
18 16 15 18 19 22 25 34 43 38 39 41 42 44 41 39 34 33 27 24 25 18 20 16 14 16 10 8 8 12 19 19
20 19 18 20 22 22 30 32 39 37 38 39 40 41 40 35 31 30 29 25 20 20 20 20 18 17 18 9 6 9 9 13
22 23 21 22 25 29 34 36 35 47 41 43 44 40 38 33 31 28 28 27 25 23 22 20 18 16 19 21 18 15 10 6
23 24 26 25 27 31 29 32 34 54 46 43 44 43 39 35 33 29 31 32 28 25 24 23 23 19 19 17 20 20 22 26
23 24 29 28 29 30 33 34 37 43 45 51 48 43 42 44 40 39 32 32 28 28 24 23 23 23 21 20 18 20 15 19
26 28 29 31 28 31 33 32 31 38 42 42 56 46 48 47 42 45 39 35 31 33 28 27 27 25 27 25 25 26 22 23
29 29 29 30 32 32 32 34 33 32 35 41 49 56 52 48 48 41 43 38 37 37 33 29 24 25 24 23 25 24 25 29

GFSFLT2_850_spd_084.txt.gz
Wind_Speed
8 12 17 18 22 25 25 26 29 31 28 34 31 30 28 26 24 24 21 15 12 18 22 23 24 32 30 26 25 20 16 12
7 13 15 15 13 12 21 23 20 22 17 23 31 27 24 25 22 21 18 16 18 22 23 23 26 32 28 26 24 19 13 13
14 11 14 12 12 14 16 15 16 5 15 22 26 24 27 22 23 22 20 18 23 23 22 23 26 29 26 23 22 16 16 14
11 15 15 13 14 16 17 16 13 14 14 26 28 20 26 16 21 22 21 24 23 23 23 24 26 27 27 22 21 16 18 10
8 15 12 16 16 14 11 12 16 18 22 27 26 25 24 28 24 25 25 25 24 25 26 26 28 32 25 21 22 17 13 10
7 11 12 14 17 17 17 16 18 19 26 32 27 28 25 32 29 29 29 26 26 27 27 24 31 31 16 17 21 17 13 11
7 9 14 15 12 11 15 19 21 23 28 31 30 28 29 32 30 33 27 28 28 29 25 22 26 21 15 20 13 16 13 13
11 11 11 13 13 11 13 18 20 22 30 32 31 29 26 35 37 31 33 31 30 27 22 22 21 17 17 21 15 13 10 11
12 12 13 14 14 15 16 18 21 24 26 28 31 33 31 42 38 36 31 28 31 21 24 22 21 19 21 19 17 14 11 8
15 14 12 14 14 15 16 16 16 20 24 27 28 34 39 48 46 41 27 28 27 26 26 22 20 19 20 20 19 15 11 11
17 12 12 13 11 11 9 11 12 13 16 24 40 46 53 51 43 40 34 34 27 29 25 22 22 20 18 17 17 16 19 11
16 14 14 13 12 10 8 10 10 19 33 41 52 52 49 45 43 36 32 32 30 29 27 24 22 18 16 15 14 16 16 17
19 18 17 18 16 14 12 14 21 28 36 35 37 38 40 43 43 33 28 29 32 30 27 24 23 21 20 13 17 15 13 18
20 17 17 20 16 16 16 17 29 33 33 43 44 43 37 28 40 31 29 30 30 27 25 25 25 22 18 23 18 17 19 19
18 18 19 21 18 18 19 27 32 34 38 41 39 33 36 41 40 33 31 33 33 32 30 27 27 27 22 18 15 11 20 23
20 23 22 22 23 22 27 34 37 37 39 37 37 35 38 39 39 36 30 33 33 31 29 29 25 28 29 26 23 13 14 10
23 22 25 25 25 25 25 31 36 39 41 41 39 38 36 32 36 35 39 39 37 32 31 28 27 25 30 27 23 19 15 15
26 26 28 29 28 26 26 31 41 44 45 45 43 38 39 43 36 38 43 41 34 34 32 30 29 23 22 24 26 25 24 24
26 27 29 31 32 31 27 30 37 45 47 47 48 46 46 49 47 43 38 43 42 34 33 30 27 23 22 24 23 23 18 16
28 25 30 32 33 33 30 30 34 40 47 48 47 50 50 48 48 46 44 40 41 39 33 30 30 35 28 25 28 27 25 24

GFSFLT2_850_spd_087.txt.gz
Wind_Speed
12 12 14 15 15 17 19 19 19 22 20 32 34 25 28 25 24 23 24 19 14 25 26 25 29 30 26 23 23 15 8 8
9 11 12 14 15 17 19 19 19 14 23 25 31 25 28 27 24 21 20 17 15 24 26 29 35 30 27 22 21 13 8 7
11 13 12 12 15 15 14 16 15 15 17 21 25 25 32 28 23 24 21 16 15 25 28 32 37 33 30 23 16 11 6 10
12 14 14 13 14 13 12 12 11 13 8 9 22 38 30 27 22 19 19 19 22 27 29 34 36 34 29 22 16 10 8 9
7 14 14 14 12 12 12 16 14 16 15 10 24 30 34 25 23 21 20 21 26 27 29 34 34 30 29 20 19 15 11 7
8 13 14 15 16 14 11 12 15 18 17 20 25 32 35 28 21 25 22 25 26 28 29 33 33 32 28 17 19 19 11 7
6 11 14 15 18 17 17 15 15 14 19 25 33 36 38 22 33 33 28 26 27 29 29 33 37 28 29 16 16 15 10 9
8 6 13 16 15 14 14 18 20 18 19 26 32 33 33 31 33 35 34 28 29 30 31 38 30 29 32 19 14 17 12 10
13 10 10 13 15 17 17 17 21 23 24 27 33 34 32 33 35 38 37 32 32 32 31 38 25 26 24 14 16 14 10 9
15 14 13 15 19 18 17 17 18 23 26 31 34 36 33 36 35 39 39 35 37 31 30 32 27 24 28 15 18 13 11 9
19 16 12 14 18 17 20 21 18 21 30 28 31 34 38 42 41 40 39 39 36 32 31 29 28 27 28 22 14 13 11 10
17 15 13 14 17 16 13 12 13 12 21 28 30 35 40 38 44 43 39 43 34 39 34 29 26 28 28 22 20 13 12 11
21 20 17 17 17 15 12 11 9 8 11 18 28 31 35 52 56 51 45 42 35 39 34 30 28 25 29 21 18 19 15 13
24 20 18 17 18 16 16 10 9 13 21 28 37 46 49 54 59 49 47 39 39 38 38 35 32 29 31 29 23 18 17 21
25 21 17 18 20 18 15 12 15 21 25 29 35 42 45 46 44 38 42 39 39 39 38 35 34 32 31 27 16 12 22 23
23 20 19 21 23 21 21 17 24 26 31 31 33 36 39 40 43 41 42 38 35 36 34 34 36 32 27 26 20 18 22 20
24 21 20 24 25 24 22 20 23 32 34 34 33 37 42 39 34 39 40 41 39 35 36 35 32 33 32 32 24 18 20 17
24 22 21 25 26 25 23 25 28 31 34 36 40 38 36 31 35 35 33 35 39 39 37 34 33 33 32 34 31 29 25 20
26 25 24 29 28 28 26 23 28 26 31 40 42 38 36 39 40 38 36 38 38 36 34 32 33 32 29 33 32 29 24 21
27 26 26 32 32 30 28 25 25 25 28 35 42 41 41 40 37 39 42 42 38 36 35 32 32 32 29 27 27 29 26 22

GFSFLT2_850_spd_090.txt.gz
Wind_Speed
14 14 16 16 17 19 21 23 23 25 29 28 24 25 23 19 23 26 28 22 28 32 33 31 29 26 23 19 16 14 11 14
13 16 16 17 18 19 19 19 20 20 19 21 21 26 35 28 28 30 27 23 29 31 32 31 28 29 22 17 18 13 8 13
10 14 14 13 16 17 17 17 18 17 18 17 23 26 38 41 36 32 28 22 27 30 31 31 28 24 21 20 17 11 7 11
10 11 15 15 15 17 17 18 18 15 15 15 23 24 27 40 34 29 25 18 20 31 30 34 27 26 26 22 16 11 6 15
9 12 14 15 14 15 17 17 16 14 13 12 15 24 34 36 31 29 28 25 28 31 34 37 29 28 27 23 17 12 11 13
9 11 14 16 14 13 14 17 17 16 14 10 12 31 29 28 32 30 26 25 30 35 37 40 34 28 25 21 19 14 11 9
8 9 14 16 17 17 16 14 14 18 18 17 24 22 31 38 35 34 30 27 32 36 38 42 38 30 25 19 19 16 11 6
9 8 12 15 18 20 19 18 17 16 20 27 31 30 37 36 35 34 29 26 32 35 38 42 37 32 22 19 20 17 11 6
10 10 9 13 14 17 19 19 21 19 19 26 29 34 40 40 31 35 32 34 34 34 37 41 38 28 20 20 17 16 11 8
12 12 11 13 15 18 20 19 20 20 22 24 27 34 41 47 32 34 33 32 34 37 39 43 36 26 23 20 18 18 12 10
16 14 15 15 12 16 19 18 20 22 22 26 38 40 43 46 36 38 37 36 37 39 44 44 39 27 21 20 22 16 14 11
16 16 18 17 17 17 21 22 26 26 29 25 34 34 37 41 36 39 41 39 41 40 48 39 40 30 24 23 21 16 14 13
22 20 20 20 19 19 20 21 19 21 25 32 33 41 47 51 45 48 48 43 45 43 44 41 33 30 26 25 19 16 14 14
24 21 20 19 19 17 18 15 16 15 17 30 34 35 38 41 40 36 47 48 42 41 39 38 34 36 34 28 24 22 20 17
27 22 20 20 17 19 17 16 12 12 11 18 27 33 33 45 43 50 52 50 45 46 40 38 36 36 36 36 19 12 24 23
27 22 21 19 17 21 18 18 15 15 11 14 23 31 38 40 43 54 55 52 44 47 41 41 40 38 38 33 24 18 20 16
28 24 21 20 19 21 20 18 14 18 17 17 22 28 34 40 50 53 47 45 40 45 43 41 41 38 43 38 27 17 20 16
29 26 24 22 21 24 21 21 19 23 24 20 24 28 30 35 35 36 44 43 42 41 40 40 37 37 38 40 33 27 24 24
31 28 27 23 22 25 24 23 22 23 27 26 29 33 35 37 37 38 44 44 45 45 41 40 39 40 39 38 32 29 27 24
34 30 28 25 23 24 24 24 25 27 28 28 31 31 34 37 38 37 35 38 41 41 42 40 40 37 37 36 34 35 32 30

GFSFLT2_850_spd_093.txt.gz
Wind_Speed
14 16 16 17 18 19 21 22 22 23 25 27 26 25 24 10 16 20 23 24 25 30 32 29 28 27 24 21 17 16 18 20
12 14 16 19 20 20 22 23 22 24 26 29 29 28 22 27 29 27 26 27 29 33 32 29 27 25 23 19 17 15 12 18
10 10 14 17 19 21 21 21 21 22 23 29 31 24 21 26 31 31 31 30 32 34 31 29 27 24 20 17 17 12 10 14
10 10 13 14 15 17 19 20 20 19 20 22 25 27 27 28 35 32 37 29 33 36 34 30 28 25 21 21 16 12 10 13
11 10 12 13 14 16 19 20 20 20 20 21 22 24 28 33 33 31 37 37 36 37 37 34 28 25 25 23 17 12 9 17
12 10 12 14 14 14 17 20 20 20 19 20 21 24 28 32 40 40 40 32 39 38 36 33 28 26 25 22 15 11 12 17
13 9 11 14 16 15 15 18 19 17 17 15 9 22 22 25 35 42 30 28 36 39 36 33 28 27 25 20 17 14 12 14
14 10 10 12 16 17 17 17 15 17 19 15 14 15 15 16 25 30 34 32 34 38 39 36 33 30 26 20 17 14 11 9
17 12 10 12 16 18 20 19 18 16 17 20 24 25 23 27 28 33 36 31 34 39 43 35 34 31 26 19 19 16 12 11
20 16 13 14 16 17 20 21 21 20 18 22 29 27 27 33 35 35 35 34 37 41 45 41 35 31 26 22 22 18 14 12
25 20 17 16 16 16 18 18 20 19 20 22 28 34 31 35 38 34 36 35 38 40 45 45 38 30 25 25 21 19 15 14
26 22 19 19 17 16 18 20 22 22 24 23 23 30 35 38 41 34 38 37 42 44 44 45 40 33 28 24 21 19 16 14
29 26 23 23 21 19 19 22 23 25 25 28 22 31 34 42 45 43 38 39 41 43 44 48 39 31 29 26 24 21 16 16
32 29 25 24 21 17 17 18 22 21 26 30 33 28 36 36 46 44 37 38 40 41 43 45 38 34 33 31 24 22 23 19
34 31 26 25 20 19 19 20 19 18 23 26 30 35 36 30 49 44 38 44 46 43 44 47 41 35 33 34 19 10 22 24
35 31 27 25 23 21 19 18 18 18 17 20 25 32 35 36 28 34 42 42 46 45 46 47 40 39 36 31 25 21 24 16
36 32 28 25 23 21 18 18 16 13 11 11 14 23 31 34 34 41 45 40 49 47 45 49 43 40 38 31 28 21 24 14
38 33 30 26 25 21 20 19 17 15 17 15 14 16 21 28 34 35 51 49 56 49 51 42 44 37 33 39 43 32 25 24
41 35 32 28 26 22 22 19 18 16 15 17 17 18 19 20 30 42 44 46 47 42 42 46 41 39 45 48 42 37 30 20
43 37 34 29 27 23 22 22 20 18 17 16 17 18 19 21 25 31 39 35 43 46 45 44 45 45 42 38 43 45 33 28

GFSFLT2_850_spd_096.txt.gz
Wind_Speed
13 14 15 17 18 19 20 22 22 23 23 25 26 28 27 31 23 21 15 19 23 25 26 27 26 26 25 21 18 18 17 15
11 12 14 16 18 19 21 22 22 23 22 23 24 26 28 23 20 22 22 24 26 26 28 29 29 26 24 20 18 16 16 18
12 13 13 16 17 20 22 24 23 21 23 25 27 29 30 27 27 27 20 30 27 29 31 31 29 26 22 19 17 16 16 18
12 13 14 15 14 16 24 23 23 24 24 25 28 28 29 26 19 21 27 31 30 32 33 32 31 28 24 20 17 15 14 17
14 14 15 15 12 12 21 25 23 23 22 25 24 26 28 25 21 30 33 30 31 35 35 34 31 28 24 21 17 14 14 16
16 16 16 13 13 13 18 22 22 21 22 22 25 24 25 26 29 35 33 33 34 38 38 35 30 26 22 22 18 13 13 17
20 18 16 14 14 14 18 22 23 22 21 21 21 21 24 32 35 36 36 33 41 40 40 34 28 25 22 22 17 13 14 14
23 21 17 15 15 15 17 19 21 21 21 19 18 16 13 19 33 42 32 32 40 42 42 36 30 26 26 23 18 13 12 14
26 22 18 17 16 16 15 18 18 17 20 21 18 17 10 10 25 35 39 32 42 45 40 35 30 27 28 25 17 15 12 13
26 25 20 18 18 18 17 19 18 18 16 18 21 18 15 17 16 16 29 36 36 42 38 34 30 31 29 23 20 18 15 15
30 28 22 18 17 19 17 18 19 20 20 18 23 24 22 19 21 23 28 34 34 39 36 35 35 32 28 23 20 19 17 15
33 30 24 20 19 20 19 21 22 20 21 21 20 29 28 25 29 26 28 33 31 36 38 38 37 33 28 23 22 21 18 16
38 34 29 25 24 23 22 23 23 23 24 23 22 24 32 32 29 33 30 34 33 37 40 40 37 35 31 28 25 22 21 18
40 38 33 29 25 22 22 21 21 22 22 24 28 24 27 35 37 32 36 37 37 40 44 42 38 36 35 34 24 22 23 21
43 41 35 31 26 24 22 21 20 25 26 31 31 32 25 33 36 34 36 35 38 39 43 45 44 37 37 28 16 11 24 24
43 42 37 32 28 24 24 22 21 23 22 21 28 35 36 29 29 34 34 34 39 42 46 45 47 45 36 34 29 22 27 14
45 42 37 32 28 24 23 21 20 18 17 20 23 26 29 31 33 32 34 35 37 42 44 47 47 48 44 38 29 20 27 13
44 43 38 34 28 25 23 20 20 19 17 15 13 14 26 27 27 32 32 30 32 37 47 46 48 49 45 43 37 28 22 18
45 44 40 34 29 26 23 19 20 19 15 16 14 13 16 26 28 32 33 28 36 34 45 49 48 48 45 41 37 32 25 27
47 46 41 36 30 26 23 19 21 18 15 17 15 16 14 16 20 22 28 33 34 41 51 56 52 45 41 37 36 30 30 38

GFSFLT2_850_spd_099.txt.gz
Wind_Speed
17 16 17 19 20 22 23 22 22 21 22 24 26 27 27 24 23 26 23 20 18 18 20 23 25 23 23 22 19 18 17 15
17 16 16 17 19 20 22 22 23 23 23 23 24 25 22 26 28 27 25 18 23 21 26 27 27 24 24 21 18 16 15 14
18 17 16 15 18 18 20 23 23 23 21 23 22 23 25 24 27 26 19 21 20 23 30 30 27 26 25 20 18 18 15 14
19 17 16 15 17 18 20 23 24 24 22 22 23 23 23 25 29 23 25 26 26 27 31 30 29 29 25 20 19 16 15 14
21 18 16 16 17 17 18 23 25 25 22 23 24 24 26 29 30 28 27 26 26 29 28 31 34 32 28 23 18 16 15 16
22 19 17 17 17 17 15 19 24 24 22 21 23 25 26 30 31 28 23 28 31 32 32 35 32 28 25 21 19 15 15 16
25 22 19 17 19 17 15 19 24 25 24 24 23 24 25 26 30 29 26 29 36 37 34 36 32 28 23 20 18 14 14 16
28 25 21 18 19 17 15 19 23 24 23 24 23 24 24 26 27 29 32 37 33 34 36 37 32 28 24 21 18 14 14 17
32 27 23 21 20 17 17 17 22 25 23 23 23 23 21 21 24 25 32 44 41 34 38 36 33 27 24 23 20 15 14 17
34 30 26 24 21 18 18 17 18 20 20 23 24 22 21 18 17 21 28 33 36 42 41 39 34 29 27 26 22 19 16 15
36 33 29 27 23 19 18 18 19 18 18 20 19 23 19 16 17 14 32 32 25 38 42 39 33 29 28 27 22 19 18 15
35 36 33 29 26 21 21 21 22 21 20 20 19 22 23 22 19 18 18 32 30 33 35 34 29 28 29 28 24 21 19 17
35 39 36 33 30 26 24 24 25 25 22 21 18 22 27 25 22 23 21 24 28 31 34 30 27 27 33 28 24 22 21 20
36 41 38 36 33 27 24 22 23 24 24 24 23 22 24 30 30 27 26 25 31 30 41 41 42 40 34 28 20 22 24 22
38 42 41 39 35 30 25 22 22 22 24 26 25 23 27 27 30 29 31 31 34 33 36 42 45 43 39 25 16 9 24 26
39 41 42 41 38 33 27 21 22 20 21 23 25 26 28 25 31 31 27 28 35 38 38 46 46 45 41 36 26 21 21 13
37 39 41 42 40 33 28 23 19 17 18 22 24 27 32 30 28 34 32 32 32 44 42 44 46 45 46 43 33 28 26 22
36 39 41 44 40 33 28 21 19 20 18 20 22 23 26 32 32 33 23 32 35 32 38 45 46 48 47 47 45 34 29 23
35 36 41 44 41 34 27 22 19 18 17 18 20 16 17 24 27 30 32 30 30 30 40 43 49 46 50 49 42 36 34 32
34 35 42 44 41 34 27 22 19 18 17 16 15 12 11 13 26 22 27 30 30 27 30 31 44 51 51 46 42 37 35 39

GFSFLT2_850_spd_102.txt.gz
Wind_Speed
17 16 16 17 19 20 20 20 19 18 18 19 21 24 25 23 22 22 26 25 25 25 22 19 19 20 21 20 18 16 14 12
18 18 17 17 18 19 20 20 20 19 20 21 23 23 24 31 22 24 19 23 26 20 23 25 24 22 24 20 18 16 13 12
21 20 17 17 17 18 19 20 21 21 21 23 23 24 25 31 27 25 21 25 22 20 23 24 26 26 25 21 17 14 12 12
24 22 18 17 18 18 18 19 21 22 23 25 24 23 23 24 26 24 27 26 20 22 20 21 25 27 26 22 17 16 12 10
24 24 20 18 15 18 19 20 23 23 23 23 24 25 22 24 21 27 31 24 21 23 27 25 29 30 29 24 17 14 11 12
28 26 22 20 16 16 18 19 23 23 24 24 25 25 24 25 26 29 36 27 27 27 27 26 30 30 27 22 16 13 12 11
30 28 25 22 20 17 17 18 20 21 23 22 25 25 26 26 25 30 33 31 27 27 31 29 31 30 25 19 16 15 13 12
26 30 27 24 21 17 16 16 21 23 20 22 24 25 24 25 27 32 33 32 29 33 34 33 33 28 22 19 17 15 14 12
27 31 30 27 24 19 17 14 19 24 23 23 23 25 25 26 28 30 32 31 30 34 37 36 35 27 22 19 17 15 13 14
26 31 33 30 27 22 18 17 17 21 23 23 24 25 25 26 26 27 27 28 32 29 44 37 38 29 22 19 18 15 14 14
26 29 33 32 30 24 21 21 21 20 20 23 23 24 25 24 23 25 21 28 36 37 37 40 36 27 22 19 18 16 15 15
24 27 32 34 31 27 20 23 23 22 20 21 20 21 24 23 21 20 16 24 30 41 44 41 38 25 20 19 17 16 15 15
24 27 30 35 35 33 29 27 25 26 23 20 21 21 21 23 22 17 15 26 27 26 41 40 40 31 24 20 18 15 15 16
24 27 31 37 38 35 30 27 26 26 24 22 21 21 21 25 26 20 18 22 27 23 36 43 41 31 26 25 16 16 18 19
27 27 30 35 35 32 29 26 26 28 26 25 23 21 22 22 31 25 22 22 26 29 28 29 31 32 28 20 11 10 21 21
26 26 31 32 34 36 37 31 28 23 22 23 24 24 26 25 22 31 32 28 27 31 34 39 40 36 34 32 22 16 23 13
26 26 30 32 37 38 35 27 20 16 18 19 22 21 24 23 26 35 37 30 30 33 34 41 42 39 40 33 22 19 23 18
25 27 32 34 38 39 36 29 22 16 17 16 16 22 20 27 25 28 29 28 30 35 36 35 43 41 41 37 30 27 24 22
25 28 34 40 44 39 36 32 24 18 15 15 15 18 19 21 30 28 32 33 31 28 34 36 40 38 42 39 42 43 34 28
26 30 33 40 44 40 36 29 22 17 16 14 14 14 15 17 23 29 29 29 29 29 30 34 41 41 45 49 46 45 42 37

GFSFLT2_850_spd_105.txt.gz
Wind_Speed
16 15 14 13 14 15 16 16 16 17 16 16 18 21 23 24 21 18 14 16 16 19 19 19 18 20 18 18 18 16 8 10
17 16 16 15 15 16 17 17 17 17 17 19 21 22 22 25 23 23 15 19 18 21 20 19 20 17 19 20 18 15 8 12
17 16 16 15 15 15 17 18 18 19 20 21 21 22 24 25 25 30 18 20 23 21 18 20 23 21 19 20 19 14 14 15
16 16 15 16 15 15 15 18 19 21 22 23 24 21 22 24 24 32 22 22 24 20 18 22 24 23 30 24 19 16 17 10
19 17 17 14 12 14 12 13 15 18 21 23 24 23 24 23 21 26 26 22 23 24 21 24 25 22 28 25 22 21 17 16
21 19 19 18 14 15 17 17 17 17 19 22 24 25 25 24 24 22 21 24 25 23 27 26 23 24 25 27 21 21 18 12
23 22 21 19 18 14 13 14 17 20 18 21 22 23 24 23 21 20 20 23 30 27 26 25 24 27 30 27 23 18 18 14
24 24 23 20 18 17 14 14 17 18 19 20 22 24 24 24 24 24 27 27 29 29 29 25 26 29 30 28 23 19 11 13
25 22 25 23 21 18 15 13 12 18 21 21 23 23 26 23 24 26 27 27 31 30 27 22 33 29 31 27 23 19 15 11
24 23 25 26 22 20 17 15 15 14 20 21 23 23 26 24 22 26 27 29 31 31 28 26 34 28 28 28 22 20 18 13
25 26 26 25 25 21 19 17 17 14 16 18 23 22 23 25 23 21 22 25 27 27 26 30 38 31 27 24 23 21 18 16
26 27 26 26 26 23 19 19 25 19 18 17 18 20 22 23 25 25 24 25 25 27 28 39 31 36 28 24 23 19 18 19
26 29 28 28 32 29 25 25 27 24 23 20 16 17 20 24 22 24 22 21 20 22 29 31 36 36 31 24 22 19 21 19
26 29 28 31 31 29 24 29 27 21 23 22 23 18 19 20 22 23 20 17 15 20 36 38 33 38 36 31 15 17 20 17
26 27 29 30 26 24 24 21 21 24 23 25 23 19 20 21 22 24 20 16 13 21 31 33 40 34 34 20 13 8 17 17
28 27 29 30 28 27 30 26 25 24 24 23 22 22 22 23 23 24 23 17 17 24 21 33 39 40 31 21 22 16 17 10
31 30 30 31 32 31 32 27 22 17 18 17 22 21 24 24 22 21 28 22 18 20 24 26 33 40 35 33 31 23 23 19
33 32 32 33 33 35 35 29 24 21 20 18 22 21 24 21 22 24 23 29 32 26 27 30 31 37 38 38 35 33 23 27
33 31 34 35 35 35 34 29 25 24 21 18 16 19 20 20 23 24 28 28 32 33 31 31 35 43 40 36 35 28 26 26
34 34 33 34 34 34 33 28 26 22 20 17 17 17 19 22 23 24 23 28 31 29 27 24 39 38 41 40 36 38 36 29

GFSFLT2_850_spd_108.txt.gz
Wind_Speed
15 14 13 12 11 11 11 12 12 12 11 11 12 14 16 18 18 17 15 15 14 14 11 10 9 11 10 12 15 15 11 12
15 15 15 14 13 12 12 12 12 13 13 13 15 15 17 19 18 19 15 15 15 14 13 15 15 14 15 16 16 14 9 10
17 16 16 16 14 14 14 14 14 15 15 16 17 18 19 20 21 22 17 17 18 16 16 17 19 12 15 17 16 13 10 13
19 17 16 15 15 14 15 15 15 16 17 19 19 20 21 23 23 25 22 21 17 17 17 19 18 16 20 23 22 17 17 15
19 18 17 15 18 13 13 15 15 16 16 18 21 22 22 22 24 25 26 24 19 18 21 23 18 20 23 23 27 21 18 20
20 20 21 19 14 15 11 9 11 13 14 17 20 23 24 23 25 24 24 29 25 23 27 27 19 20 19 27 30 24 21 19
25 23 22 24 18 20 16 22 19 15 16 17 20 22 25 26 24 24 22 21 23 27 29 28 22 22 17 20 27 26 22 21
31 28 26 25 25 21 20 16 18 18 20 17 19 20 23 24 24 24 22 22 22 26 28 26 21 24 22 30 28 26 24 22
35 32 32 29 28 28 27 22 19 18 15 17 19 20 21 22 23 24 23 23 23 23 24 24 24 23 19 32 27 25 22 19
36 35 31 32 30 28 25 17 18 17 13 18 21 21 22 22 22 23 22 25 26 25 26 26 25 19 20 31 29 25 23 19
34 34 30 29 32 29 26 22 21 20 16 14 19 20 21 23 22 21 20 23 24 26 27 27 26 20 26 38 34 24 23 15
31 35 30 29 29 30 28 26 25 22 21 16 15 17 20 21 22 21 20 20 23 24 25 25 25 27 30 28 29 28 21 14
27 34 32 31 31 36 31 31 29 30 23 19 16 16 15 20 21 23 22 24 24 22 22 21 25 27 30 36 24 23 24 20
23 27 32 31 32 36 33 29 35 32 30 26 20 15 17 19 21 26 25 22 22 22 20 20 24 33 38 25 19 21 26 27
26 23 25 30 35 36 29 29 34 29 28 26 24 22 21 21 21 24 22 21 19 17 17 18 30 38 38 29 20 14 23 21
31 33 31 32 34 33 36 39 41 37 31 27 24 23 23 20 22 23 21 20 19 16 16 16 33 24 33 28 19 34 25 15
23 33 35 35 38 37 35 35 37 31 28 27 26 21 23 23 23 25 22 20 18 16 17 22 23 34 34 33 21 24 26 21
26 26 37 37 41 37 35 37 30 28 25 29 25 25 22 24 23 25 23 20 21 17 18 19 21 36 36 32 29 28 29 27
30 30 34 40 40 40 38 37 34 29 26 27 25 24 24 27 26 26 27 22 26 23 19 18 21 28 40 37 33 32 31 26
16 30 30 38 37 41 39 35 39 28 29 32 24 20 21 23 24 24 25 24 26 25 27 22 23 25 30 36 35 31 28 27

GFSFLT2_850_spd_111.txt.gz
Wind_Speed
17 15 13 11 10 10 10 11 11 11 11 11 12 13 14 15 15 15 14 13 12 11 10 9 8 8 10 9 13 12 10 11
19 18 16 13 11 11 12 12 12 12 12 13 13 13 15 16 17 17 16 14 13 13 13 8 10 12 9 8 14 14 9 8
21 20 19 16 13 13 13 14 14 14 14 14 14 15 16 16 18 18 18 16 15 16 16 12 11 14 10 11 16 16 11 11
22 22 21 19 17 16 15 15 16 16 16 16 16 16 16 17 19 19 21 18 19 17 16 15 14 17 13 13 18 16 14 16
24 23 22 21 20 18 17 17 17 17 17 17 17 18 18 19 20 21 25 21 23 21 18 18 16 17 16 16 18 20 18 18
23 23 23 22 20 18 17 16 17 17 17 18 19 20 21 21 22 23 25 26 26 25 22 19 19 20 16 18 20 26 25 21
25 24 24 25 20 19 19 16 16 13 14 15 16 19 21 22 23 22 24 25 27 27 25 23 22 22 19 19 20 25 27 23
32 27 25 25 24 23 22 18 17 17 16 15 17 19 21 21 22 22 22 24 21 24 27 25 23 23 21 21 21 26 29 23
40 34 30 27 25 24 24 23 23 22 19 19 17 19 21 21 23 24 24 24 21 23 23 23 22 22 20 19 18 26 28 25
43 42 37 32 28 27 28 28 26 23 22 22 19 18 21 22 23 23 24 23 22 23 24 24 22 24 22 21 22 31 29 28
37 47 43 37 32 30 31 30 27 24 20 19 18 20 21 24 24 24 25 24 23 24 25 25 24 24 23 18 25 30 25 28
36 44 46 41 36 32 31 30 30 26 22 20 18 19 21 23 23 24 23 23 22 25 27 26 26 24 22 20 27 32 25 30
32 36 44 46 40 36 33 32 30 29 27 23 19 17 17 22 24 24 24 23 23 25 26 26 26 23 19 23 28 35 28 33
24 30 38 46 42 36 33 33 32 31 31 27 23 19 17 20 24 24 24 24 26 25 27 25 24 22 24 26 16 30 33 33
31 28 36 45 40 35 33 29 29 33 37 35 29 22 20 21 23 24 26 27 27 26 25 26 25 26 27 16 20 8 30 34
17 29 32 40 38 33 33 35 36 43 44 40 33 29 26 24 24 24 25 25 23 25 24 23 22 25 26 40 26 32 32 23
6 16 35 41 39 33 32 33 33 41 42 40 36 35 30 28 27 26 26 22 21 22 22 21 22 26 32 31 30 35 34 33
9 14 8 36 38 34 34 35 31 41 40 37 35 32 35 34 30 28 27 22 20 22 20 20 21 27 25 33 36 41 37 34
16 17 21 19 41 40 40 38 32 37 40 39 35 35 34 37 32 30 27 23 20 23 20 21 24 23 28 37 35 38 38 30
22 23 24 24 34 44 42 41 36 37 38 35 32 33 34 32 29 28 23 23 21 22 22 20 22 22 29 32 32 30 25 31

GFSFLT2_850_spd_114.txt.gz
Wind_Speed
20 19 17 16 15 15 15 15 14 13 14 14 15 15 15 15 14 15 13 12 12 11 12 10 10 10 13 13 14 11 10 12
20 19 18 17 16 16 16 15 14 14 14 15 15 16 17 17 17 17 16 14 14 12 13 11 9 10 11 10 11 13 11 11
23 21 20 18 17 17 17 16 15 16 16 16 16 17 18 18 19 18 18 16 17 14 14 12 7 10 14 10 13 18 15 10
25 25 23 22 21 19 18 17 16 16 17 17 18 17 18 18 19 20 19 19 18 15 15 15 12 11 18 11 16 16 16 10
27 26 26 25 24 22 20 18 17 17 17 18 18 19 19 20 21 23 22 23 21 20 19 18 15 14 19 14 16 18 17 14
28 28 28 28 26 25 22 21 19 18 18 19 20 21 21 22 23 23 25 25 25 23 22 20 17 16 18 19 18 20 15 18
27 30 31 29 28 27 26 24 22 19 18 19 20 22 22 22 23 24 25 25 27 25 25 23 21 18 20 20 19 24 22 22
31 28 28 29 30 28 28 26 23 21 20 19 19 21 21 22 23 24 25 25 26 25 26 25 24 21 22 21 21 22 22 26
36 34 30 28 28 29 28 27 26 24 21 19 19 21 21 23 23 24 24 24 24 23 24 24 24 23 23 23 22 25 28 28
40 38 36 33 30 28 28 28 29 25 23 20 19 19 22 24 24 25 24 24 25 24 23 23 23 24 23 25 25 24 25 25
36 40 41 40 37 33 31 31 30 27 24 23 21 21 21 24 25 25 25 25 26 25 24 24 25 25 24 24 24 25 25 28
29 34 39 43 44 40 36 32 29 28 27 26 25 25 23 23 24 25 26 26 27 27 26 26 26 25 24 24 24 26 26 33
36 31 34 46 51 45 42 36 34 33 33 28 27 26 25 24 25 26 28 29 27 27 27 26 28 25 23 23 21 23 27 33
41 33 32 41 54 52 46 41 37 34 32 29 28 26 26 26 25 25 28 29 27 26 28 28 27 27 27 20 17 24 31 31
25 33 34 37 47 54 46 40 35 33 33 32 31 27 25 26 26 26 26 27 28 28 29 29 29 29 29 18 10 12 27 34
8 22 33 39 46 56 52 46 41 39 37 35 33 29 27 27 26 27 26 27 28 29 31 31 30 30 28 33 30 19 21 17
11 9 24 32 42 53 52 47 40 37 34 35 35 33 30 29 27 28 28 27 29 28 32 32 31 30 30 31 37 28 29 31
3 4 5 25 32 38 43 42 40 42 38 38 37 36 33 33 32 31 30 28 29 29 30 28 30 28 26 27 30 37 34 36
13 9 6 11 29 34 38 40 41 39 39 36 36 39 38 36 37 36 33 30 30 28 28 27 27 24 27 26 34 33 40 40
17 17 14 11 19 36 42 44 48 41 40 33 35 38 38 36 38 38 34 30 29 26 26 26 23 22 25 29 28 37 40 39

GFSFLT2_850_spd_117.txt.gz
Wind_Speed
27 25 23 21 19 19 19 18 17 17 17 18 18 17 16 16 15 15 14 12 12 12 12 11 11 10 10 11 10 10 10 12
26 24 24 23 21 20 19 18 17 17 17 17 17 18 17 17 16 16 15 14 14 13 12 11 11 9 8 8 10 10 10 12
27 25 24 23 22 21 20 19 18 18 18 18 18 19 19 19 18 17 18 16 16 15 14 13 11 9 11 12 10 12 11 12
28 27 25 24 23 22 21 20 21 21 20 20 20 19 19 20 20 19 19 19 17 17 15 15 13 9 13 16 12 12 15 13
30 28 26 25 24 23 21 21 22 22 21 21 20 20 21 21 22 22 22 23 20 20 19 18 16 12 14 18 14 14 17 16
30 29 29 28 26 25 24 23 22 23 22 22 22 22 23 23 23 24 25 25 24 22 22 19 18 14 14 18 18 15 17 17
32 31 31 31 30 29 27 25 23 22 23 23 22 22 23 23 24 24 26 27 25 25 22 21 20 17 16 18 22 18 20 18
31 31 32 32 32 32 31 28 26 24 24 24 23 22 22 22 23 25 26 27 26 25 24 23 22 20 19 20 22 21 20 24
30 29 28 31 33 33 33 31 30 28 27 26 24 23 22 22 23 24 26 27 26 25 25 25 24 23 21 21 23 23 23 23
32 33 34 33 32 32 33 33 32 31 29 27 25 24 23 23 24 24 25 26 26 26 26 26 26 25 23 23 23 24 24 25
38 35 37 37 36 35 33 34 33 32 31 29 27 25 24 23 24 24 24 26 28 27 27 27 26 26 24 24 24 25 27 26
31 31 30 35 41 40 37 36 34 33 32 31 29 27 25 23 24 24 25 27 28 28 28 27 26 24 25 25 26 26 26 28
35 34 33 36 45 45 45 41 36 35 34 32 30 28 26 25 23 25 27 29 30 28 27 27 25 24 23 25 24 22 26 29
32 33 32 35 40 42 49 45 42 38 35 32 29 30 28 28 26 27 28 29 30 29 28 27 28 27 26 24 14 24 29 25
18 22 32 34 39 44 50 46 43 38 34 33 32 32 31 30 28 28 29 29 32 30 30 30 27 29 29 23 10 10 15 25
12 21 28 34 40 41 45 49 47 41 40 38 39 35 34 32 30 30 29 29 30 31 31 31 29 30 29 30 30 17 10 12
9 15 23 28 29 35 39 42 43 42 43 40 41 36 35 35 33 31 30 31 30 30 28 28 30 31 32 32 30 31 28 22
11 8 12 17 23 29 33 37 39 40 37 42 41 36 35 36 35 33 31 30 31 29 29 28 30 32 33 33 32 33 35 34
9 7 5 7 20 25 32 35 36 35 40 47 40 33 36 37 39 37 35 31 30 29 30 32 32 33 33 35 30 31 31 37
13 7 3 5 9 20 30 36 38 38 38 41 41 36 33 38 40 39 36 32 31 30 30 32 32 33 31 32 27 29 32 36

GFSFLT2_850_spd_123.txt.gz
Wind_Speed
32 31 30 28 27 26 25 24 22 20 19 19 19 19 18 17 16 16 14 12 12 12 13 11 10 8 7 8 8 8 8 8
32 32 31 30 29 27 25 24 23 21 20 20 20 19 19 18 17 16 15 13 13 14 14 12 9 8 7 8 8 9 9 8
33 32 32 31 30 29 27 25 24 22 22 21 21 22 21 20 19 17 17 15 15 15 14 12 11 9 8 8 9 8 7 8
36 35 34 33 32 31 30 28 27 26 25 24 24 23 22 21 19 18 17 17 16 16 16 14 14 11 8 9 10 9 7 7
38 36 35 35 34 34 32 31 30 28 27 26 25 24 23 23 21 21 20 19 19 19 19 17 16 13 9 9 11 11 9 9
39 38 37 36 35 34 34 33 32 30 28 27 26 26 25 24 24 23 23 23 21 21 21 19 18 16 12 11 12 13 12 11
42 40 39 38 36 35 35 33 32 30 29 28 27 26 25 25 25 24 24 23 23 22 22 21 20 18 16 14 13 13 15 14
40 41 40 40 39 37 35 33 30 30 29 28 28 26 25 24 25 25 25 25 24 23 23 22 21 20 19 17 15 15 15 17
42 42 43 43 40 38 34 33 30 29 28 28 28 27 26 24 24 25 25 25 25 25 24 23 22 21 21 20 19 17 18 18
38 43 45 44 41 40 37 35 33 30 29 29 29 27 26 25 25 25 25 25 25 25 24 24 24 24 23 22 22 21 20 21
32 43 44 45 43 41 40 37 36 34 31 30 29 29 28 26 25 25 25 25 26 26 26 26 26 25 25 24 24 23 22 24
34 36 46 44 45 43 40 38 38 37 34 33 32 32 31 28 27 26 26 27 27 28 28 28 27 25 24 25 25 25 25 25
33 35 45 44 45 43 41 40 40 40 36 36 34 35 33 31 31 28 28 30 29 28 28 28 27 24 23 24 25 25 26 25
33 36 39 43 42 39 41 40 43 41 37 35 36 36 36 34 34 31 30 30 30 30 29 29 27 24 25 23 17 23 26 26
26 34 36 38 39 37 40 40 39 40 42 40 40 37 36 34 35 35 32 31 31 30 31 29 28 26 27 22 9 14 17 21
15 23 31 36 33 33 36 40 40 42 40 40 41 39 37 34 36 38 36 32 31 31 30 30 29 30 28 31 30 17 9 10
10 14 19 25 31 28 31 34 35 35 37 36 36 38 39 38 39 39 35 34 32 32 30 30 33 32 31 32 31 33 30 24
9 11 12 16 21 27 27 30 32 35 35 33 32 30 32 41 38 36 30 27 31 34 32 31 32 34 33 33 31 28 30 27
14 13 9 12 18 22 25 27 29 32 31 32 32 30 31 34 42 37 32 29 30 35 36 33 33 35 37 33 33 35 28 30
15 15 13 8 14 17 19 23 30 31 29 29 31 32 32 30 32 35 36 34 29 34 39 38 35 36 36 36 33 30 30 32

GFSFLT2_850_spd_126.txt.gz
Wind_Speed
29 30 30 27 26 24 23 22 21 20 20 19 19 18 18 17 16 15 13 12 11 11 11 11 10 9 8 7 7 7 8 5
28 31 31 29 27 25 24 23 22 21 20 20 20 19 19 18 17 16 14 13 11 12 12 12 10 9 7 7 7 7 4 4
23 28 31 31 29 27 25 24 23 22 21 21 21 21 21 20 18 17 14 14 13 13 13 12 11 10 8 8 7 4 5 5
22 27 28 24 21 25 29 27 27 26 25 24 24 21 20 19 19 18 16 15 14 15 15 14 12 10 10 9 6 7 5 6
22 23 27 28 25 23 28 24 26 28 28 27 26 21 19 20 18 21 20 19 17 18 18 16 14 13 11 9 8 8 6 6
23 26 26 28 24 27 31 26 33 30 26 27 24 22 22 21 19 19 19 18 16 17 16 15 17 15 12 11 10 9 7 7
24 27 29 28 30 25 28 26 30 35 32 32 30 23 22 21 20 20 19 19 19 18 17 18 16 16 14 12 11 10 10 8
24 29 34 34 34 31 30 33 26 35 34 33 32 29 24 23 22 25 21 21 19 18 18 18 17 16 16 15 13 11 10 10
22 28 34 41 40 37 33 32 32 33 35 33 32 32 31 30 28 24 27 22 22 20 19 19 17 17 16 15 16 17 13 12
25 28 31 39 43 40 32 31 36 32 34 34 35 35 33 30 31 31 24 26 26 26 26 24 20 18 17 16 16 15 15 14
28 29 31 35 41 38 35 32 36 35 34 34 35 37 35 31 31 30 29 27 27 28 28 26 25 19 17 17 17 17 17 17
28 30 30 34 35 38 29 29 37 36 37 36 33 34 36 34 31 29 29 29 29 30 29 28 27 21 19 18 18 17 17 17
25 29 31 32 34 35 33 32 35 33 34 35 35 34 34 35 33 32 30 31 31 30 29 29 29 24 23 24 25 25 27 25
21 25 32 33 35 36 37 34 31 30 28 31 34 36 36 36 36 36 32 32 32 32 31 31 30 29 27 23 19 20 29 32
16 16 26 33 37 35 32 28 25 25 28 30 33 35 35 36 37 34 32 34 34 34 32 32 32 31 28 18 10 15 12 12
10 12 20 31 38 35 36 34 30 28 26 25 28 35 35 34 34 32 30 35 35 34 32 30 30 30 27 27 25 16 10 9
7 0 9 20 26 37 34 30 24 18 22 23 29 32 33 33 33 34 37 39 35 34 31 29 27 25 25 21 28 26 24 21
4 4 5 19 28 34 20 23 18 20 22 18 21 25 26 29 34 37 40 40 35 30 27 26 28 28 27 26 23 23 28 28
8 8 8 12 19 25 26 31 25 24 25 21 21 24 25 26 30 35 44 42 36 30 32 32 27 33 34 34 30 28 22 20
14 13 11 10 12 14 18 20 21 21 21 23 25 22 20 25 29 32 35 40 38 35 41 41 38 34 36 32 31 32 26 26

GFSFLT2_850_spd_129.txt.gz
Wind_Speed
13 23 26 24 22 20 18 18 18 18 18 18 17 17 16 15 15 13 12 11 10 10 9 9 8 7 6 6 5 7 5 7
13 15 25 25 24 22 20 19 19 18 19 19 18 18 17 16 16 15 13 11 10 9 9 9 8 8 7 6 6 6 5 5
15 16 19 24 25 25 23 22 21 21 21 20 20 20 19 19 17 16 15 13 12 11 10 10 10 9 8 7 5 4 5 5
16 18 19 21 20 21 27 26 25 25 24 24 23 19 18 16 17 18 16 14 13 13 13 12 11 9 9 8 6 3 4 9
17 20 21 21 21 20 20 22 26 27 26 24 25 19 20 21 18 21 20 19 17 16 16 15 12 11 12 7 5 6 6 7
17 22 23 25 23 24 21 23 23 23 24 25 22 22 23 22 20 18 19 18 15 16 13 14 13 14 12 10 10 7 7 10
17 23 27 27 30 24 25 26 25 24 24 27 25 22 22 22 22 20 21 19 18 19 15 16 17 15 14 13 12 10 9 8
21 21 28 30 30 30 27 25 25 33 29 27 29 26 23 22 26 23 22 20 21 21 19 20 17 15 16 15 13 12 12 11
23 22 26 32 33 32 29 27 28 25 26 32 36 30 27 23 20 25 21 20 20 21 21 19 15 18 18 16 15 15 14 12
25 25 27 32 36 34 33 29 30 28 26 28 34 36 28 29 26 22 27 22 24 23 21 23 18 19 18 18 17 17 16 16
29 28 30 32 34 36 37 34 33 30 27 27 31 38 36 30 31 30 24 21 25 26 25 22 17 17 19 18 17 19 19 19
26 27 26 31 34 36 36 36 34 32 30 28 27 32 39 33 25 29 31 24 29 28 30 27 19 18 17 17 19 20 18 21
24 25 31 25 35 38 40 39 38 39 35 31 29 29 34 39 36 30 31 33 33 30 29 27 26 19 20 20 20 21 21 19
25 26 29 32 31 36 40 39 40 41 36 38 41 38 35 35 39 30 31 32 32 30 30 32 28 26 19 19 14 17 23 25
26 27 26 33 26 34 41 39 37 37 35 34 34 35 36 37 36 33 34 32 29 32 32 32 28 29 30 17 10 13 13 15
28 23 22 22 30 33 47 43 41 40 36 32 29 31 29 28 31 33 31 28 29 30 31 34 30 28 25 29 25 17 12 12
23 19 18 24 31 30 34 47 38 36 36 33 31 28 27 27 24 24 27 28 29 30 32 34 35 27 28 21 30 25 23 23
17 13 14 23 24 20 38 38 41 35 31 33 30 32 30 28 27 27 27 29 34 31 33 32 30 30 25 22 23 25 24 24
15 11 6 2 19 6 14 25 31 26 28 30 14 13 16 19 24 28 30 31 34 32 31 32 31 30 22 21 32 36 24 21
20 16 10 8 8 5 12 13 12 13 17 23 22 12 14 16 15 16 25 30 32 36 33 32 33 35 35 37 39 39 32 27

GFSFLT2_850_spd_135.txt.gz
Wind_Speed
8 11 11 16 20 20 19 18 17 17 17 16 16 15 15 14 13 12 11 10 9 8 8 7 6 6 7 8 10 10 6 7
15 17 12 15 23 22 21 19 19 19 18 18 18 17 17 16 15 15 14 12 11 10 9 8 8 7 7 8 10 11 6 4
22 18 16 12 24 24 23 22 21 21 21 21 21 20 19 18 17 16 16 14 13 11 10 10 9 9 8 8 10 15 8 8
17 21 21 16 20 25 25 24 24 23 23 23 23 22 21 20 19 18 18 16 14 13 12 11 11 10 8 8 11 11 7 6
18 21 22 20 16 22 27 28 27 27 26 26 25 25 23 23 22 22 21 20 18 16 14 12 12 11 10 10 11 8 9 9
25 19 16 23 22 21 21 26 29 31 30 29 29 28 27 26 25 25 24 22 21 18 16 13 13 13 12 9 12 8 5 8
20 20 23 17 24 29 26 29 29 27 32 33 31 31 30 27 25 25 24 23 23 21 18 16 15 16 12 9 10 7 8 6
17 18 17 19 21 24 31 33 34 32 28 32 35 32 31 30 28 26 25 22 22 22 20 14 13 17 14 16 14 10 13 11
20 23 23 20 16 19 25 35 36 35 32 28 29 33 34 34 31 30 27 25 21 22 18 16 15 15 16 17 14 14 17 15
27 27 30 32 25 16 17 29 35 36 34 31 32 31 31 35 33 32 30 27 24 23 23 24 22 22 20 19 18 18 17 19
38 35 35 39 38 28 22 19 32 37 43 41 39 36 32 35 36 33 30 30 27 26 27 29 27 26 24 20 20 20 20 20
39 35 37 41 43 37 34 30 24 34 40 39 41 41 37 35 39 34 33 30 32 32 29 29 31 26 24 22 22 23 23 25
38 39 32 37 43 42 39 38 34 27 33 39 41 44 45 45 44 40 36 35 35 35 31 29 30 28 25 23 23 24 21 23
38 38 35 31 37 39 40 41 43 42 28 30 36 55 48 48 47 47 43 41 36 38 35 32 30 29 30 23 19 22 26 26
39 37 37 31 30 36 40 42 42 49 45 33 39 49 51 45 42 54 48 45 44 39 39 38 37 36 34 24 12 17 18 27
35 33 32 30 26 34 35 37 38 42 47 42 41 42 48 48 47 48 60 50 48 45 40 38 36 39 39 37 28 10 14 10
33 33 29 26 23 29 31 31 34 39 41 42 38 39 48 52 50 46 55 48 51 49 49 38 41 37 36 36 38 32 19 15
31 30 28 26 22 24 23 26 32 32 35 32 38 38 44 51 55 50 47 49 44 44 43 41 42 38 33 37 38 41 42 36
30 28 25 21 18 19 19 20 24 24 25 25 32 13 24 29 21 50 42 43 42 40 37 35 37 35 34 35 34 37 35 35
32 30 28 22 17 14 12 12 14 12 21 23 27 20 20 12 26 19 24 36 37 37 33 34 32 27 25 34 34 36 38 35

GFSFLT2_850_spd_138.txt.gz
Wind_Speed
16 16 17 12 17 19 19 19 18 18 18 17 16 16 15 15 14 13 12 11 10 10 9 9 8 8 9 11 13 11 7 9
13 16 19 17 14 22 21 20 18 18 18 18 18 18 18 17 17 16 15 13 11 11 10 10 9 9 10 12 15 13 9 8
21 13 17 21 17 19 24 22 21 21 21 21 21 21 21 20 19 18 17 16 14 13 11 11 11 11 12 12 15 15 10 9
12 11 13 18 16 16 24 26 26 24 24 24 24 24 23 22 21 20 19 18 16 15 13 12 12 12 12 13 15 16 9 8
12 12 9 7 13 20 23 28 29 29 27 27 26 26 26 25 24 24 22 21 19 18 16 14 13 14 14 13 16 16 11 11
18 16 16 13 8 16 19 28 31 33 31 29 30 30 30 29 28 27 26 25 23 20 18 16 15 15 15 16 18 15 12 13
24 23 21 22 19 15 15 25 29 33 33 34 33 34 34 33 31 30 29 28 26 24 21 19 18 18 18 19 19 16 13 12
22 28 29 26 27 25 21 17 25 28 35 35 35 38 38 36 35 33 32 30 28 26 24 21 20 20 20 19 17 15 14 11
27 29 33 37 35 33 30 25 19 21 29 38 39 40 41 40 38 37 35 31 29 26 26 23 20 21 21 20 18 17 16 15
36 37 37 41 43 43 39 33 30 24 26 27 40 45 45 43 42 41 38 33 30 29 27 27 26 24 23 21 19 19 20 17
41 41 42 44 47 47 48 42 38 33 31 30 27 43 46 42 41 42 40 36 34 32 31 30 29 27 25 22 22 21 22 22
38 37 40 39 41 46 45 48 43 40 38 33 35 36 48 43 38 39 41 40 38 36 35 31 31 29 27 26 25 25 27 26
42 39 34 35 34 37 43 44 48 44 42 40 35 33 43 35 42 41 40 43 42 40 37 35 35 32 28 28 27 28 29 31
42 39 35 32 31 30 33 39 42 46 45 44 42 38 30 43 48 51 42 43 44 43 41 39 39 35 37 28 26 30 35 35
41 39 35 34 30 31 29 34 40 41 42 46 43 46 36 36 43 40 49 45 50 47 44 43 44 40 39 27 17 17 23 36
36 36 34 32 28 29 29 33 39 39 39 41 45 45 42 37 35 47 49 54 55 52 50 47 45 43 39 42 30 16 14 10
34 34 33 30 27 25 28 33 35 35 34 38 38 39 42 42 38 37 49 53 58 59 54 50 51 47 45 44 44 37 24 18
31 32 34 31 29 24 22 28 31 31 28 31 31 29 31 31 40 30 37 64 58 65 59 52 51 49 45 45 46 46 45 34
30 31 33 30 26 22 19 21 27 28 22 25 20 19 25 29 37 20 31 25 46 62 60 51 50 48 45 44 46 45 43 38
28 29 33 30 24 19 17 15 17 19 15 21 16 15 16 14 24 22 26 15 6 35 43 45 47 45 44 42 42 39 40 36